Observation data for Crowell on 11/14/2019      Previous  Date  Next       Current Mesonet Observations  Soil Data  Daily Summary Page  Observations in Plain Language
KCR1 140600Z 05004KT 01/M02 A301 RMK A01 T00051016  RH  086%=      5-min Rain = 0
KCR1 140601Z 05004KT 01/M02 A301 RMK A01 T00051016  RH  086%=      5-min Rain = 0
KCR1 140602Z 05004KT 01/M02 A301 RMK A01 T00051016  RH  086%=      5-min Rain = 0
KCR1 140603Z 05004KT 01/M02 A301 RMK A01 T00051015  RH  087%=      5-min Rain = 0
KCR1 140604Z 05004KT 01/M02 A301 RMK A01 T00051015  RH  086%=      5-min Rain = 0
KCR1 140605Z 06004KT 01/M02 A301 RMK A01 T00051016  RH  086%=      5-min Rain = 0
KCR1 140606Z 05004KT 01/M02 A301 RMK A01 T00051016  RH  086%=      5-min Rain = 0
KCR1 140607Z 05004KT 01/M02 A301 RMK A01 T00061016  RH  086%=      5-min Rain = 0
KCR1 140608Z 05004KT 01/M02 A301 RMK A01 T00061016  RH  085%=      5-min Rain = 0
KCR1 140609Z 05004KT 01/M02 A301 RMK A01 T00061017  RH  085%=      5-min Rain = 0
KCR1 140610Z 05004KT 01/M02 A301 RMK A01 T00061017  RH  085%=      5-min Rain = 0
KCR1 140611Z 05004KT 01/M02 A301 RMK A01 T00061016  RH  085%=      5-min Rain = 0
KCR1 140612Z 05004KT 01/M02 A301 RMK A01 T00061017  RH  085%=      5-min Rain = 0
KCR1 140613Z 05004KT 01/M02 A301 RMK A01 T00051017  RH  085%=      5-min Rain = 0
KCR1 140614Z 06004KT 01/M02 A3011 RMK A01 T00051017  RH  085%=      5-min Rain = 0
KCR1 140615Z 06004KT 01/M02 A3011 RMK A01 T00051018  RH  085%=      5-min Rain = 0
KCR1 140616Z 06004KT 01/M02 A3011 RMK A01 T00051018  RH  085%=      5-min Rain = 0
KCR1 140617Z 06004KT 01/M02 A3011 RMK A01 T00051018  RH  085%=      5-min Rain = 0
KCR1 140618Z 05004KT 01/M02 A3011 RMK A01 T00051018  RH  084%=      5-min Rain = 0
KCR1 140619Z 05004KT 01/M02 A3011 RMK A01 T00051019  RH  084%=      5-min Rain = 0
KCR1 140620Z 04004KT 00/M02 A3011 RMK A01 T00041019  RH  085%=      5-min Rain = 0
KCR1 140621Z 05004KT 00/M02 A3011 RMK A01 T00041019  RH  085%=      5-min Rain = 0
KCR1 140622Z 04004KT 00/M02 A3011 RMK A01 T00041019  RH  085%=      5-min Rain = 0
KCR1 140623Z 04004KT 00/M02 A3011 RMK A01 T00041019  RH  084%=      5-min Rain = 0
KCR1 140624Z 05004KT 00/M02 A3011 RMK A01 T00041019  RH  084%=      5-min Rain = 0
KCR1 140625Z 04004KT 00/M02 A3011 RMK A01 T00041019  RH  084%=      5-min Rain = 0
KCR1 140626Z 04004KT 00/M02 A3011 RMK A01 T00041019  RH  084%=      5-min Rain = 0
KCR1 140627Z 05004KT 00/M02 A3011 RMK A01 T00041020  RH  084%=      5-min Rain = 0
KCR1 140628Z 04004KT 00/M02 A3011 RMK A01 T00031020  RH  084%=      5-min Rain = 0
KCR1 140629Z 04004KT 00/M02 A3011 RMK A01 T00031020  RH  084%=      5-min Rain = 0
KCR1 140630Z 04004KT 00/M02 A3011 RMK A01 T00021020  RH  085%=      5-min Rain = 0
KCR1 140631Z 04004KT 00/M02 A3011 RMK A01 T00021020  RH  085%=      5-min Rain = 0
KCR1 140632Z 04004KT 00/M02 A3011 RMK A01 T00021021  RH  085%=      5-min Rain = 0
KCR1 140633Z 04004KT 00/M02 A3011 RMK A01 T00011021  RH  085%=      5-min Rain = 0
KCR1 140634Z 03004KT 00/M02 A3011 RMK A01 T00011021  RH  085%=      5-min Rain = 0
KCR1 140635Z 03004KT 00/M02 A3011 RMK A01 T00021021  RH  085%=      5-min Rain = 0
KCR1 140636Z 03004KT 00/M02 A3011 RMK A01 T00011021  RH  085%=      5-min Rain = 0
KCR1 140637Z 03004KT 00/M02 A3011 RMK A01 T00021021  RH  084%=      5-min Rain = 0
KCR1 140638Z 03004KT 00/M02 A3011 RMK A01 T00021022  RH  084%=      5-min Rain = 0
KCR1 140639Z 03005KT 00/M02 A3011 RMK A01 T00021022  RH  084%=      5-min Rain = 0
KCR1 140640Z 03004KT 00/M02 A3011 RMK A01 T00021022  RH  084%=      5-min Rain = 0
KCR1 140641Z 02004KT 00/M02 A3011 RMK A01 T00021022  RH  084%=      5-min Rain = 0
KCR1 140642Z 02004KT 00/M02 A3012 RMK A01 T00021022  RH  084%=      5-min Rain = 0
KCR1 140643Z 02005KT 00/M02 A3012 RMK A01 T00021022  RH  084%=      5-min Rain = 0
KCR1 140644Z 02005KT 00/M02 A3012 RMK A01 T00021022  RH  084%=      5-min Rain = 0
KCR1 140645Z 02005KT 00/M02 A3012 RMK A01 T00021022  RH  084%=      5-min Rain = 0
KCR1 140646Z 02005KT 00/M02 A3012 RMK A01 T00011023  RH  084%=      5-min Rain = 0
KCR1 140647Z 02005KT 00/M02 A3012 RMK A01 T00011023  RH  084%=      5-min Rain = 0
KCR1 140648Z 02005KT 00/M02 A3012 RMK A01 T00011024  RH  084%=      5-min Rain = 0
KCR1 140649Z 02005KT 00/M02 A3012 RMK A01 T00011024  RH  084%=      5-min Rain = 0
KCR1 140650Z 02005KT 00/M02 A3012 RMK A01 T00011024  RH  083%=      5-min Rain = 0
KCR1 140651Z 01005KT 00/M02 A3012 RMK A01 T00011024  RH  083%=      5-min Rain = 0
KCR1 140652Z 01005KT 00/M02 A3012 RMK A01 T00011024  RH  083%=      5-min Rain = 0
KCR1 140653Z 01005KT 00/M02 A3012 RMK A01 T00011024  RH  083%=      5-min Rain = 0
KCR1 140654Z 01004KT 00/03 A3012 RMK A01 T00000-25  RH  083%=      5-min Rain = 0
KCR1 140655Z 02004KT 00/03 A3012 RMK A01 T00-00-25  RH  083%=      5-min Rain = 0
KCR1 140656Z 02004KT M00/M03 A3012 RMK A01 T10011026  RH  084%=      5-min Rain = 0
KCR1 140657Z 02004KT M00/M03 A3012 RMK A01 T10011026  RH  084%=      5-min Rain = 0
KCR1 140658Z 02004KT M00/M03 A3012 RMK A01 T10021026  RH  084%=      5-min Rain = 0
KCR1 140659Z 02004KT M00/M03 A3013 RMK A01 T10021026  RH  084%=      5-min Rain = 0
KCR1 140700Z 02004KT M00/M03 A3013 RMK A01 T10021026  RH  084%=      5-min Rain = 0
KCR1 140701Z 02004KT M00/M03 A3013 RMK A01 T10031025  RH  085%=      5-min Rain = 0
KCR1 140702Z 02004KT M00/M03 A3013 RMK A01 T10031025  RH  085%=      5-min Rain = 0
KCR1 140703Z 02004KT M00/M03 A3013 RMK A01 T10031025  RH  085%=      5-min Rain = 0
KCR1 140704Z 02004KT M00/M03 A3013 RMK A01 T10031025  RH  085%=      5-min Rain = 0
KCR1 140705Z 02004KT M00/M03 A3013 RMK A01 T10031025  RH  085%=      5-min Rain = 0
KCR1 140706Z 02004KT M00/M03 A3013 RMK A01 T10031025  RH  085%=      5-min Rain = 0
KCR1 140707Z 02004KT M00/M03 A3013 RMK A01 T10031025  RH  085%=      5-min Rain = 0
KCR1 140708Z 02004KT M00/M03 A3013 RMK A01 T10031026  RH  085%=      5-min Rain = 0
KCR1 140709Z 02004KT M00/M03 A3013 RMK A01 T10031026  RH  085%=      5-min Rain = 0
KCR1 140710Z 01004KT M00/M03 A3013 RMK A01 T10021025  RH  085%=      5-min Rain = 0
KCR1 140711Z 01004KT M00/M03 A3013 RMK A01 T10031026  RH  085%=      5-min Rain = 0
KCR1 140712Z 01004KT M00/M03 A3013 RMK A01 T10031026  RH  085%=      5-min Rain = 0
KCR1 140713Z 01005KT M00/M03 A3013 RMK A01 T10031026  RH  084%=      5-min Rain = 0
KCR1 140714Z 01005KT M00/M03 A3013 RMK A01 T10031026  RH  084%=      5-min Rain = 0
KCR1 140715Z 01005KT M00/M03 A3013 RMK A01 T10031026  RH  084%=      5-min Rain = 0
KCR1 140716Z 01005KT M00/M03 A3013 RMK A01 T10031027  RH  084%=      5-min Rain = 0
KCR1 140717Z 01005KT M00/M03 A3013 RMK A01 T10031027  RH  084%=      5-min Rain = 0
KCR1 140718Z 01005KT M00/M03 A3013 RMK A01 T10031027  RH  084%=      5-min Rain = 0
KCR1 140719Z 01005KT M00/M03 A3013 RMK A01 T10031027  RH  084%=      5-min Rain = 0
KCR1 140720Z 01005KT M00/M03 A3013 RMK A01 T10021027  RH  084%=      5-min Rain = 0
KCR1 140721Z 01005KT M00/M03 A3013 RMK A01 T10031027  RH  084%=      5-min Rain = 0
KCR1 140722Z 01005KT M00/M03 A3013 RMK A01 T10031027  RH  084%=      5-min Rain = 0
KCR1 140723Z 01006KT M00/M03 A3013 RMK A01 T10031027  RH  084%=      5-min Rain = 0
KCR1 140724Z 01005KT M00/M03 A3014 RMK A01 T10031027  RH  084%=      5-min Rain = 0
KCR1 140725Z 01005KT M00/M03 A3014 RMK A01 T10021027  RH  084%=      5-min Rain = 0
KCR1 140726Z 01005KT M00/M03 A3014 RMK A01 T10021027  RH  084%=      5-min Rain = 0
KCR1 140727Z 01006KT M00/M03 A3014 RMK A01 T10021027  RH  084%=      5-min Rain = 0
KCR1 140728Z 01006KT M00/M03 A3014 RMK A01 T10021027  RH  083%=      5-min Rain = 0
KCR1 140729Z 01005KT M00/M03 A3014 RMK A01 T10021027  RH  083%=      5-min Rain = 0
KCR1 140730Z 01005KT M00/M03 A3014 RMK A01 T10021027  RH  083%=      5-min Rain = 0
KCR1 140731Z 01005KT M00/M03 A3014 RMK A01 T10021027  RH  083%=      5-min Rain = 0
KCR1 140732Z 02005KT M00/M03 A3014 RMK A01 T10021027  RH  083%=      5-min Rain = 0
KCR1 140733Z 02005KT M00/M03 A3014 RMK A01 T10021027  RH  083%=      5-min Rain = 0
KCR1 140734Z 02005KT M00/M03 A3014 RMK A01 T10021027  RH  083%=      5-min Rain = 0
KCR1 140735Z 01005KT M00/M03 A3014 RMK A01 T10021027  RH  083%=      5-min Rain = 0
KCR1 140736Z 01005KT M00/M03 A3014 RMK A01 T10021027  RH  083%=      5-min Rain = 0
KCR1 140737Z 01005KT M00/M03 A3014 RMK A01 T10021027  RH  083%=      5-min Rain = 0
KCR1 140738Z 01005KT M00/M03 A3014 RMK A01 T10031027  RH  084%=      5-min Rain = 0
KCR1 140739Z 01005KT M00/M03 A3014 RMK A01 T10031027  RH  084%=      5-min Rain = 0
KCR1 140740Z 00005KT M00/M03 A3014 RMK A01 T10031027  RH  084%=      5-min Rain = 0
KCR1 140741Z 00005KT M00/M03 A3014 RMK A01 T10031027  RH  084%=      5-min Rain = 0
KCR1 140742Z 01005KT M00/M03 A3014 RMK A01 T10031027  RH  084%=      5-min Rain = 0
KCR1 140743Z 00005KT M00/M03 A3014 RMK A01 T10031027  RH  084%=      5-min Rain = 0
KCR1 140744Z 00005KT M00/M03 A3014 RMK A01 T10031026  RH  084%=      5-min Rain = 0
KCR1 140745Z 36006KT M00/M03 A3014 RMK A01 T10031027  RH  084%=      5-min Rain = 0
KCR1 140746Z 00006KT M00/M03 A3014 RMK A01 T10031027  RH  084%=      5-min Rain = 0
KCR1 140747Z 00006KT M00/M03 A3014 RMK A01 T10031027  RH  084%=      5-min Rain = 0
KCR1 140748Z 36006KT M00/M03 A3015 RMK A01 T10031027  RH  084%=      5-min Rain = 0
KCR1 140749Z 36007KT M00/M03 A3015 RMK A01 T10031027  RH  084%=      5-min Rain = 0
KCR1 140750Z 36007KT M00/M03 A3015 RMK A01 T10041028  RH  084%=      5-min Rain = 0
KCR1 140751Z 36006KT M00/M03 A3015 RMK A01 T10031027  RH  084%=      5-min Rain = 0
KCR1 140752Z 35006KT M00/M03 A3015 RMK A01 T10041028  RH  084%=      5-min Rain = 0
KCR1 140753Z 36006KT M00/M03 A3015 RMK A01 T10041028  RH  084%=      5-min Rain = 0
KCR1 140754Z 00006KT M00/M03 A3015 RMK A01 T10041028  RH  084%=      5-min Rain = 0
KCR1 140755Z 36006KT M00/M03 A3015 RMK A01 T10041028  RH  084%=      5-min Rain = 0
KCR1 140756Z 36006KT M00/M03 A3015 RMK A01 T10041028  RH  083%=      5-min Rain = 0
KCR1 140757Z 00006KT M00/M03 A3015 RMK A01 T10031028  RH  083%=      5-min Rain = 0
KCR1 140758Z 00006KT M00/M03 A3015 RMK A01 T10041029  RH  083%=      5-min Rain = 0
KCR1 140759Z 36006KT M00/M03 A3015 RMK A01 T10041029  RH  083%=      5-min Rain = 0
KCR1 140800Z 36006KT M00/M03 A3015 RMK A01 T10041029  RH  083%=      5-min Rain = 0
KCR1 140801Z 00006KT M00/M03 A3015 RMK A01 T10041029  RH  083%=      5-min Rain = 0
KCR1 140802Z 36006KT M00/M03 A3015 RMK A01 T10041029  RH  083%=      5-min Rain = 0
KCR1 140803Z 36006KT M00/M03 A3016 RMK A01 T10031028  RH  083%=      5-min Rain = 0
KCR1 140804Z 35006KT M00/M03 A3016 RMK A01 T10041029  RH  083%=      5-min Rain = 0
KCR1 140805Z 35006KT M00/M03 A3016 RMK A01 T10041028  RH  083%=      5-min Rain = 0
KCR1 140806Z 35006KT M00/M03 A3016 RMK A01 T10031028  RH  083%=      5-min Rain = 0
KCR1 140807Z 35006KT M00/M03 A3016 RMK A01 T10041028  RH  084%=      5-min Rain = 0
KCR1 140808Z 35007KT M00/M03 A3016 RMK A01 T10041028  RH  084%=      5-min Rain = 0
KCR1 140809Z 35007KT M00/M03 A3016 RMK A01 T10041028  RH  084%=      5-min Rain = 0
KCR1 140810Z 34007KT M00/M03 A3016 RMK A01 T10041027  RH  084%=      5-min Rain = 0
KCR1 140811Z 34007KT M00/M03 A3016 RMK A01 T10041027  RH  084%=      5-min Rain = 0
KCR1 140812Z 34007KT M00/M03 A3016 RMK A01 T10041027  RH  084%=      5-min Rain = 0
KCR1 140813Z 34007KT M00/M03 A3016 RMK A01 T10041027  RH  085%=      5-min Rain = 0
KCR1 140814Z 34006KT M00/M03 A3016 RMK A01 T10041026  RH  085%=      5-min Rain = 0
KCR1 140815Z 34006KT M00/M03 A3016 RMK A01 T10041026  RH  085%=      5-min Rain = 0
KCR1 140816Z 34006KT M00/M03 A3016 RMK A01 T10041026  RH  085%=      5-min Rain = 0
KCR1 140817Z 34006KT M00/M03 A3016 RMK A01 T10031026  RH  085%=      5-min Rain = 0
KCR1 140818Z 34006KT M00/M03 A3016 RMK A01 T10031026  RH  085%=      5-min Rain = 0
KCR1 140819Z 34006KT M00/M03 A3017 RMK A01 T10021025  RH  084%=      5-min Rain = 0
KCR1 140820Z 34007KT M00/M03 A3017 RMK A01 T10021026  RH  084%=      5-min Rain = 0
KCR1 140821Z 34007KT M00/M03 A3017 RMK A01 T10021026  RH  084%=      5-min Rain = 0
KCR1 140822Z 34007KT M00/M03 A3017 RMK A01 T10021026  RH  084%=      5-min Rain = 0
KCR1 140823Z 34007KT M00/M03 A3017 RMK A01 T10011026  RH  083%=      5-min Rain = 0
KCR1 140824Z 34007KT M00/M03 A3017 RMK A01 T10011026  RH  083%=      5-min Rain = 0
KCR1 140825Z 34007KT M00/M03 A3017 RMK A01 T10011027  RH  083%=      5-min Rain = 0
KCR1 140826Z 34007KT M00/M03 A3017 RMK A01 T10011027  RH  083%=      5-min Rain = 0
KCR1 140827Z 34007KT M00/M03 A3017 RMK A01 T10011027  RH  083%=      5-min Rain = 0
KCR1 140828Z 34007KT M00/M03 A3017 RMK A01 T10011028  RH  082%=      5-min Rain = 0
KCR1 140829Z 34008KT M00/M03 A3017 RMK A01 T10011028  RH  082%=      5-min Rain = 0
KCR1 140830Z 34008KT M00/M03 A3017 RMK A01 T10011028  RH  082%=      5-min Rain = 0
KCR1 140831Z 34007KT M00/M03 A3017 RMK A01 T10011028  RH  082%=      5-min Rain = 0
KCR1 140832Z 34008KT M00/M03 A3017 RMK A01 T10011028  RH  082%=      5-min Rain = 0
KCR1 140833Z 34008KT M00/M03 A3017 RMK A01 T10011028  RH  082%=      5-min Rain = 0
KCR1 140834Z 34008KT M00/M03 A3017 RMK A01 T10011028  RH  082%=      5-min Rain = 0
KCR1 140835Z 34007KT M00/M03 A3017 RMK A01 T10011028  RH  082%=      5-min Rain = 0
KCR1 140836Z 34008KT M00/M03 A3017 RMK A01 T10011029  RH  082%=      5-min Rain = 0
KCR1 140837Z 34008KT M00/M03 A3017 RMK A01 T10011029  RH  081%=      5-min Rain = 0
KCR1 140838Z 34008KT M00/M03 A3017 RMK A01 T10011029  RH  081%=      5-min Rain = 0
KCR1 140839Z 34008KT M00/M03 A3017 RMK A01 T10011029  RH  081%=      5-min Rain = 0
KCR1 140840Z 34008KT M00/M03 A3017 RMK A01 T10011029  RH  081%=      5-min Rain = 0
KCR1 140841Z 34008KT M00/M03 A3017 RMK A01 T10011029  RH  081%=      5-min Rain = 0
KCR1 140842Z 34008KT M00/M03 A3017 RMK A01 T10011029  RH  081%=      5-min Rain = 0
KCR1 140843Z 34008KT M00/M03 A3017 RMK A01 T10011029  RH  081%=      5-min Rain = 0
KCR1 140844Z 34007KT M00/M03 A3017 RMK A01 T10011029  RH  082%=      5-min Rain = 0
KCR1 140845Z 34007KT M00/M03 A3017 RMK A01 T10021029  RH  082%=      5-min Rain = 0
KCR1 140846Z 34007KT M00/M03 A3017 RMK A01 T10021029  RH  082%=      5-min Rain = 0
KCR1 140847Z 34007KT M00/M03 A3017 RMK A01 T10021029  RH  082%=      5-min Rain = 0
KCR1 140848Z 33007KT M00/M03 A3017 RMK A01 T10021029  RH  082%=      5-min Rain = 0
KCR1 140849Z 34008KT M00/M03 A3017 RMK A01 T10031029  RH  083%=      5-min Rain = 0
KCR1 140850Z 34007KT M00/M03 A3017 RMK A01 T10031029  RH  083%=      5-min Rain = 0
KCR1 140851Z 33007KT M00/M03 A3017 RMK A01 T10031028  RH  083%=      5-min Rain = 0
KCR1 140852Z 33007KT M00/M03 A3017 RMK A01 T10031028  RH  083%=      5-min Rain = 0
KCR1 140853Z 33007KT M00/M03 A3017 RMK A01 T10031028  RH  083%=      5-min Rain = 0
KCR1 140854Z 33007KT M00/M03 A3017 RMK A01 T10031029  RH  083%=      5-min Rain = 0
KCR1 140855Z 34007KT M00/M03 A3017 RMK A01 T10031029  RH  083%=      5-min Rain = 0
KCR1 140856Z 33008KT M00/M03 A3017 RMK A01 T10031029  RH  083%=      5-min Rain = 0
KCR1 140857Z 34008KT M00/M03 A3018 RMK A01 T10041029  RH  083%=      5-min Rain = 0
KCR1 140858Z 34009KT M00/M03 A3018 RMK A01 T10041029  RH  083%=      5-min Rain = 0
KCR1 140859Z 34009KT M00/M03 A3018 RMK A01 T10041029  RH  083%=      5-min Rain = 0
KCR1 140900Z 34008KT M00/M03 A3018 RMK A01 T10041030  RH  083%=      5-min Rain = 0
KCR1 140901Z 34008KT M01/M03 A3018 RMK A01 T10051030  RH  083%=      5-min Rain = 0
KCR1 140902Z 33008KT M01/M03 A3018 RMK A01 T10051030  RH  083%=      5-min Rain = 0
KCR1 140903Z 34008KT M01/M03 A3018 RMK A01 T10051030  RH  083%=      5-min Rain = 0
KCR1 140904Z 34009KT M01/M03 A3018 RMK A01 T10061031  RH  083%=      5-min Rain = 0
KCR1 140905Z 34008KT M01/M03 A3018 RMK A01 T10061031  RH  083%=      5-min Rain = 0
KCR1 140906Z 33008KT M01/M03 A3018 RMK A01 T10071031  RH  084%=      5-min Rain = 0
KCR1 140907Z 33008KT M01/M03 A3018 RMK A01 T10071032  RH  084%=      5-min Rain = 0
KCR1 140908Z 33009KT M01/M03 A3018 RMK A01 T10081032  RH  084%=      5-min Rain = 0
KCR1 140909Z 34009KT M01/M03 A3018 RMK A01 T10081032  RH  084%=      5-min Rain = 0
KCR1 140910Z 34009KT M01/M03 A3018 RMK A01 T10081032  RH  084%=      5-min Rain = 0
KCR1 140911Z 34009KT M01/M03 A3018 RMK A01 T10081033  RH  084%=      5-min Rain = 0
KCR1 140912Z 34009KT M01/M03 A3018 RMK A01 T10091033  RH  084%=      5-min Rain = 0
KCR1 140913Z 34009KT M01/M03 A3018 RMK A01 T10091033  RH  084%=      5-min Rain = 0
KCR1 140914Z 34008KT M01/M03 A3018 RMK A01 T10091033  RH  084%=      5-min Rain = 0
KCR1 140915Z 34008KT M01/M03 A3018 RMK A01 T10091033  RH  084%=      5-min Rain = 0
KCR1 140916Z 34009KT M01/M03 A3018 RMK A01 T10091033  RH  084%=      5-min Rain = 0
KCR1 140917Z 34009KT M01/M03 A3018 RMK A01 T10101033  RH  084%=      5-min Rain = 0
KCR1 140918Z 34008KT M01/M03 A3018 RMK A01 T10101033  RH  084%=      5-min Rain = 0
KCR1 140919Z 34008KT M01/M03 A3018 RMK A01 T10111034  RH  084%=      5-min Rain = 0
KCR1 140920Z 35008KT M01/M03 A3019 RMK A01 T10111034  RH  085%=      5-min Rain = 0
KCR1 140921Z 34008KT M01/M03 A3019 RMK A01 T10121034  RH  085%=      5-min Rain = 0
KCR1 140922Z 34008KT M01/M03 A3019 RMK A01 T10121034  RH  085%=      5-min Rain = 0
KCR1 140923Z 34008KT M01/M03 A3019 RMK A01 T10121034  RH  085%=      5-min Rain = 0
KCR1 140924Z 35008KT M01/M03 A3019 RMK A01 T10131034  RH  086%=      5-min Rain = 0
KCR1 140925Z 35008KT M01/M03 A3019 RMK A01 T10131034  RH  086%=      5-min Rain = 0
KCR1 140926Z 34008KT M01/M03 A3019 RMK A01 T10141034  RH  086%=      5-min Rain = 0
KCR1 140927Z 34008KT M01/M03 A3019 RMK A01 T10131034  RH  086%=      5-min Rain = 0
KCR1 140928Z 34008KT M01/M03 A3019 RMK A01 T10141034  RH  086%=      5-min Rain = 0
KCR1 140929Z 34008KT M01/M03 A3019 RMK A01 T10141034  RH  086%=      5-min Rain = 0
KCR1 140930Z 34008KT M02/M04 A3019 RMK A01 T10151035  RH  086%=      5-min Rain = 0
KCR1 140931Z 34008KT M02/M04 A3019 RMK A01 T10151035  RH  086%=      5-min Rain = 0
KCR1 140932Z 34008KT M02/M04 A3019 RMK A01 T10151035  RH  086%=      5-min Rain = 0
KCR1 140933Z 34008KT M02/M04 A3019 RMK A01 T10151035  RH  086%=      5-min Rain = 0
KCR1 140934Z 35008KT M01/M04 A3019 RMK A01 T10141035  RH  086%=      5-min Rain = 0
KCR1 140935Z 34008KT M02/M04 A3019 RMK A01 T10151035  RH  086%=      5-min Rain = 0
KCR1 140936Z 34008KT M02/M04 A3019 RMK A01 T10151035  RH  086%=      5-min Rain = 0
KCR1 140937Z 34008KT M02/M04 A3019 RMK A01 T10151035  RH  086%=      5-min Rain = 0
KCR1 140938Z 35008KT M02/M04 A3019 RMK A01 T10161036  RH  086%=      5-min Rain = 0
KCR1 140939Z 35007KT M02/M04 A3019 RMK A01 T10161036  RH  086%=      5-min Rain = 0
KCR1 140940Z 34008KT M02/M04 A3019 RMK A01 T10151036  RH  086%=      5-min Rain = 0
KCR1 140941Z 34008KT M02/M04 A3019 RMK A01 T10151036  RH  086%=      5-min Rain = 0
KCR1 140942Z 34008KT M02/M04 A3019 RMK A01 T10151036  RH  086%=      5-min Rain = 0
KCR1 140943Z 34007KT M02/M04 A3019 RMK A01 T10151036  RH  085%=      5-min Rain = 0
KCR1 140944Z 34007KT M02/M04 A3019 RMK A01 T10151037  RH  085%=      5-min Rain = 0
KCR1 140945Z 34007KT M02/M04 A3019 RMK A01 T10151036  RH  086%=      5-min Rain = 0
KCR1 140946Z 34008KT M02/M04 A3019 RMK A01 T10151036  RH  086%=      5-min Rain = 0
KCR1 140947Z 34008KT M01/M04 A3019 RMK A01 T10141036  RH  085%=      5-min Rain = 0
KCR1 140948Z 34007KT M01/M04 A3019 RMK A01 T10141036  RH  085%=      5-min Rain = 0
KCR1 140949Z 34008KT M01/M04 A3019 RMK A01 T10141037  RH  084%=      5-min Rain = 0
KCR1 140950Z 34008KT M01/M04 A3019 RMK A01 T10141037  RH  084%=      5-min Rain = 0
KCR1 140951Z 34007KT M01/M04 A3019 RMK A01 T10141037  RH  084%=      5-min Rain = 0
KCR1 140952Z 34007KT M01/M04 A3019 RMK A01 T10141037  RH  084%=      5-min Rain = 0
KCR1 140953Z 33008KT M01/M04 A3019 RMK A01 T10141037  RH  085%=      5-min Rain = 0
KCR1 140954Z 34007KT M01/M04 A3019 RMK A01 T10141037  RH  084%=      5-min Rain = 0
KCR1 140955Z 34007KT M01/M04 A302 RMK A01 T10141037  RH  084%=      5-min Rain = 0
KCR1 140956Z 34007KT M01/M04 A302 RMK A01 T10141037  RH  084%=      5-min Rain = 0
KCR1 140957Z 34007KT M01/M04 A302 RMK A01 T10141037  RH  084%=      5-min Rain = 0
KCR1 140958Z 34007KT M01/M04 A302 RMK A01 T10141038  RH  084%=      5-min Rain = 0
KCR1 140959Z 34008KT M01/M04 A302 RMK A01 T10131038  RH  084%=      5-min Rain = 0
KCR1 141000Z 34007KT M01/M04 A302 RMK A01 T10141038  RH  083%=      5-min Rain = 0
KCR1 141001Z 33007KT M01/M04 A302 RMK A01 T10141038  RH  083%=      5-min Rain = 0
KCR1 141002Z 34006KT M01/M04 A302 RMK A01 T10141038  RH  083%=      5-min Rain = 0
KCR1 141003Z 34007KT M01/M04 A302 RMK A01 T10141038  RH  084%=      5-min Rain = 0
KCR1 141004Z 33006KT M01/M04 A302 RMK A01 T10141038  RH  084%=      5-min Rain = 0
KCR1 141005Z 33006KT M01/M04 A302 RMK A01 T10141039  RH  084%=      5-min Rain = 0
KCR1 141006Z 34005KT M02/M04 A302 RMK A01 T10151039  RH  084%=      5-min Rain = 0
KCR1 141007Z 33005KT M02/M04 A302 RMK A01 T10151038  RH  084%=      5-min Rain = 0
KCR1 141008Z 33006KT M02/M04 A302 RMK A01 T10151039  RH  084%=      5-min Rain = 0
KCR1 141009Z 33006KT M02/M04 A3021 RMK A01 T10151039  RH  084%=      5-min Rain = 0
KCR1 141010Z 33006KT M02/M04 A3021 RMK A01 T10151039  RH  084%=      5-min Rain = 0
KCR1 141011Z 33006KT M02/M04 A3021 RMK A01 T10161039  RH  084%=      5-min Rain = 0
KCR1 141012Z 33006KT M02/M04 A3021 RMK A01 T10151039  RH  084%=      5-min Rain = 0
KCR1 141013Z 33005KT M02/M04 A3021 RMK A01 T10151040  RH  084%=      5-min Rain = 0
KCR1 141014Z 33006KT M02/M04 A3021 RMK A01 T10161040  RH  083%=      5-min Rain = 0
KCR1 141015Z 33005KT M02/M04 A3021 RMK A01 T10161040  RH  083%=      5-min Rain = 0
KCR1 141016Z 33006KT M02/M04 A3021 RMK A01 T10151040  RH  083%=      5-min Rain = 0
KCR1 141017Z 32007KT M02/M04 A3021 RMK A01 T10151040  RH  083%=      5-min Rain = 0
KCR1 141018Z 32006KT M02/M04 A3021 RMK A01 T10151040  RH  083%=      5-min Rain = 0
KCR1 141019Z 32006KT M02/M04 A3021 RMK A01 T10151040  RH  083%=      5-min Rain = 0
KCR1 141020Z 32006KT M02/M04 A3021 RMK A01 T10151040  RH  083%=      5-min Rain = 0
KCR1 141021Z 32007KT M02/M04 A3021 RMK A01 T10151041  RH  083%=      5-min Rain = 0
KCR1 141022Z 33006KT M02/M04 A3022 RMK A01 T10151041  RH  083%=      5-min Rain = 0
KCR1 141023Z 32006KT M02/M04 A3022 RMK A01 T10151041  RH  083%=      5-min Rain = 0
KCR1 141024Z 33007KT M02/M04 A3022 RMK A01 T10151041  RH  083%=      5-min Rain = 0
KCR1 141025Z 32007KT M02/M04 A3022 RMK A01 T10151041  RH  082%=      5-min Rain = 0
KCR1 141026Z 33007KT M02/M04 A3022 RMK A01 T10151041  RH  082%=      5-min Rain = 0
KCR1 141027Z 33007KT M02/M04 A3022 RMK A01 T10151041  RH  082%=      5-min Rain = 0
KCR1 141028Z 33007KT M02/M04 A3022 RMK A01 T10151041  RH  082%=      5-min Rain = 0
KCR1 141029Z 33008KT M02/M04 A3022 RMK A01 T10151041  RH  082%=      5-min Rain = 0
KCR1 141030Z 33007KT M02/M04 A3022 RMK A01 T10151042  RH  082%=      5-min Rain = 0
KCR1 141031Z 33008KT M02/M04 A3022 RMK A01 T10161042  RH  082%=      5-min Rain = 0
KCR1 141032Z 34008KT M02/M04 A3022 RMK A01 T10151042  RH  082%=      5-min Rain = 0
KCR1 141033Z 33007KT M02/M04 A3022 RMK A01 T10151042  RH  082%=      5-min Rain = 0
KCR1 141034Z 33008KT M02/M04 A3022 RMK A01 T10151042  RH  082%=      5-min Rain = 0
KCR1 141035Z 33008KT M02/M04 A3022 RMK A01 T10161042  RH  082%=      5-min Rain = 0
KCR1 141036Z 34008KT M02/M04 A3022 RMK A01 T10161042  RH  082%=      5-min Rain = 0
KCR1 141037Z 34008KT M02/M04 A3021 RMK A01 T10161042  RH  082%=      5-min Rain = 0
KCR1 141038Z 33008KT M02/M04 A3021 RMK A01 T10161042  RH  082%=      5-min Rain = 0
KCR1 141039Z 34008KT M02/M04 A3022 RMK A01 T10161042  RH  082%=      5-min Rain = 0
KCR1 141040Z 34009KT M02/M04 A3022 RMK A01 T10161042  RH  082%=      5-min Rain = 0
KCR1 141041Z 34008KT M02/M04 A3022 RMK A01 T10161042  RH  082%=      5-min Rain = 0
KCR1 141042Z 34008KT M02/M04 A3022 RMK A01 T10161042  RH  082%=      5-min Rain = 0
KCR1 141043Z 34008KT M02/M04 A3022 RMK A01 T10161042  RH  082%=      5-min Rain = 0
KCR1 141044Z 34008KT M02/M04 A3022 RMK A01 T10171043  RH  083%=      5-min Rain = 0
KCR1 141045Z 34008KT M02/M04 A3022 RMK A01 T10181043  RH  083%=      5-min Rain = 0
KCR1 141046Z 34008KT M02/M04 A3022 RMK A01 T10181043  RH  083%=      5-min Rain = 0
KCR1 141047Z 34008KT M02/M04 A3022 RMK A01 T10191043  RH  084%=      5-min Rain = 0
KCR1 141048Z 34008KT M02/M04 A3022 RMK A01 T10201043  RH  084%=      5-min Rain = 0
KCR1 141049Z 34008KT M02/M04 A3022 RMK A01 T10201044  RH  084%=      5-min Rain = 0
KCR1 141050Z 34008KT M02/M04 A3022 RMK A01 T10211044  RH  084%=      5-min Rain = 0
KCR1 141051Z 34008KT M02/M04 A3022 RMK A01 T10211043  RH  085%=      5-min Rain = 0
KCR1 141052Z 34008KT M02/M04 A3022 RMK A01 T10211044  RH  085%=      5-min Rain = 0
KCR1 141053Z 34009KT M02/M04 A3022 RMK A01 T10221044  RH  085%=      5-min Rain = 0
KCR1 141054Z 34009KT M02/M04 A3022 RMK A01 T10221044  RH  085%=      5-min Rain = 0
KCR1 141055Z 34009KT M02/M04 A3022 RMK A01 T10221044  RH  085%=      5-min Rain = 0
KCR1 141056Z 34009KT M02/M04 A3022 RMK A01 T10221044  RH  085%=      5-min Rain = 0
KCR1 141057Z 34009KT M02/M04 A3022 RMK A01 T10221044  RH  085%=      5-min Rain = 0
KCR1 141058Z 33010KT M02/M04 A3022 RMK A01 T10221044  RH  085%=      5-min Rain = 0
KCR1 141059Z 34009KT M02/M04 A3022 RMK A01 T10211044  RH  085%=      5-min Rain = 0
KCR1 141100Z 34009KT M02/M04 A3022 RMK A01 T10211044  RH  084%=      5-min Rain = 0
KCR1 141101Z 34010KT M02/M04 A3022 RMK A01 T10201044  RH  084%=      5-min Rain = 0
KCR1 141102Z 33010KT M02/M04 A3022 RMK A01 T10201044  RH  084%=      5-min Rain = 0
KCR1 141103Z 34009KT M02/M04 A3022 RMK A01 T10201044  RH  083%=      5-min Rain = 0
KCR1 141104Z 34009KT M02/M05 A3022 RMK A01 T10191045  RH  083%=      5-min Rain = 0
KCR1 141105Z 34009KT M02/M05 A3022 RMK A01 T10191045  RH  083%=      5-min Rain = 0
KCR1 141106Z 34010KT M02/M05 A3022 RMK A01 T10191045  RH  082%=      5-min Rain = 0
KCR1 141107Z 34009KT M02/M05 A3022 RMK A01 T10191045  RH  082%=      5-min Rain = 0
KCR1 141108Z 33010KT M02/M05 A3022 RMK A01 T10191045  RH  082%=      5-min Rain = 0
KCR1 141109Z 34008KT M02/M05 A3022 RMK A01 T10191045  RH  082%=      5-min Rain = 0
KCR1 141110Z 34008KT M02/M05 A3022 RMK A01 T10191045  RH  082%=      5-min Rain = 0
KCR1 141111Z 34009KT M02/M05 A3022 RMK A01 T10191045  RH  082%=      5-min Rain = 0
KCR1 141112Z 34009KT M02/M05 A3022 RMK A01 T10191045  RH  082%=      5-min Rain = 0
KCR1 141113Z 34009KT M02/M05 A3022 RMK A01 T10181045  RH  082%=      5-min Rain = 0
KCR1 141114Z 34008KT M02/M05 A3023 RMK A01 T10181045  RH  082%=      5-min Rain = 0
KCR1 141115Z 34008KT M02/M05 A3023 RMK A01 T10181045  RH  081%=      5-min Rain = 0
KCR1 141116Z 34009KT M02/M05 A3023 RMK A01 T10181045  RH  082%=      5-min Rain = 0
KCR1 141117Z 34008KT M02/M05 A3023 RMK A01 T10181045  RH  082%=      5-min Rain = 0
KCR1 141118Z 34008KT M02/M05 A3023 RMK A01 T10181045  RH  082%=      5-min Rain = 0
KCR1 141119Z 34008KT M02/M05 A3023 RMK A01 T10181045  RH  082%=      5-min Rain = 0
KCR1 141120Z 34008KT M02/M05 A3023 RMK A01 T10181045  RH  082%=      5-min Rain = 0
KCR1 141121Z 34008KT M02/M05 A3023 RMK A01 T10181046  RH  082%=      5-min Rain = 0
KCR1 141122Z 34008KT M02/M05 A3023 RMK A01 T10181046  RH  082%=      5-min Rain = 0
KCR1 141123Z 34008KT M02/M05 A3023 RMK A01 T10191046  RH  082%=      5-min Rain = 0
KCR1 141124Z 34008KT M02/M05 A3023 RMK A01 T10191046  RH  082%=      5-min Rain = 0
KCR1 141125Z 34009KT M02/M05 A3023 RMK A01 T10191046  RH  082%=      5-min Rain = 0
KCR1 141126Z 34009KT M02/M05 A3023 RMK A01 T10201045  RH  082%=      5-min Rain = 0
KCR1 141127Z 34009KT M02/M05 A3023 RMK A01 T10201045  RH  083%=      5-min Rain = 0
KCR1 141128Z 34009KT M02/M05 A3023 RMK A01 T10201045  RH  083%=      5-min Rain = 0
KCR1 141129Z 34008KT M02/M05 A3023 RMK A01 T10201046  RH  083%=      5-min Rain = 0
KCR1 141130Z 34009KT M02/M05 A3023 RMK A01 T10201045  RH  083%=      5-min Rain = 0
KCR1 141131Z 34009KT M02/M05 A3023 RMK A01 T10201045  RH  083%=      5-min Rain = 0
KCR1 141132Z 34009KT M02/M05 A3023 RMK A01 T10201045  RH  083%=      5-min Rain = 0
KCR1 141133Z 35009KT M02/M05 A3023 RMK A01 T10201046  RH  083%=      5-min Rain = 0
KCR1 141134Z 35009KT M02/M05 A3023 RMK A01 T10191046  RH  082%=      5-min Rain = 0
KCR1 141135Z 34009KT M02/M05 A3023 RMK A01 T10191046  RH  082%=      5-min Rain = 0
KCR1 141136Z 35009KT M02/M05 A3023 RMK A01 T10181046  RH  081%=      5-min Rain = 0
KCR1 141137Z 35009KT M02/M05 A3023 RMK A01 T10181046  RH  081%=      5-min Rain = 0
KCR1 141138Z 35009KT M02/M05 A3023 RMK A01 T10171047  RH  080%=      5-min Rain = 0
KCR1 141139Z 35009KT M02/M05 A3023 RMK A01 T10171047  RH  080%=      5-min Rain = 0
KCR1 141140Z 35009KT M02/M05 A3023 RMK A01 T10171047  RH  080%=      5-min Rain = 0
KCR1 141141Z 35009KT M02/M05 A3024 RMK A01 T10161047  RH  080%=      5-min Rain = 0
KCR1 141142Z 35009KT M02/M05 A3023 RMK A01 T10161047  RH  079%=      5-min Rain = 0
KCR1 141143Z 35009KT M02/M05 A3024 RMK A01 T10161047  RH  079%=      5-min Rain = 0
KCR1 141144Z 35009KT M02/M05 A3024 RMK A01 T10161047  RH  079%=      5-min Rain = 0
KCR1 141145Z 35009KT M02/M05 A3024 RMK A01 T10151047  RH  079%=      5-min Rain = 0
KCR1 141146Z 35009KT M02/M05 A3024 RMK A01 T10151048  RH  079%=      5-min Rain = 0
KCR1 141147Z 35009KT M02/M05 A3024 RMK A01 T10151047  RH  079%=      5-min Rain = 0
KCR1 141148Z 34009KT M02/M05 A3024 RMK A01 T10151047  RH  079%=      5-min Rain = 0
KCR1 141149Z 35009KT M02/M05 A3024 RMK A01 T10151047  RH  079%=      5-min Rain = 0
KCR1 141150Z 35009KT M02/M05 A3024 RMK A01 T10151047  RH  078%=      5-min Rain = 0
KCR1 141151Z 35010KT M01/M05 A3025 RMK A01 T10141047  RH  078%=      5-min Rain = 0
KCR1 141152Z 35010KT M01/M05 A3025 RMK A01 T10141047  RH  078%=      5-min Rain = 0
KCR1 141153Z 34009KT M01/M05 A3025 RMK A01 T10141048  RH  078%=      5-min Rain = 0
KCR1 141154Z 35009KT M01/M05 A3025 RMK A01 T10131047  RH  078%=      5-min Rain = 0
KCR1 141155Z 34009KT M01/M05 A3025 RMK A01 T10131047  RH  078%=      5-min Rain = 0
KCR1 141156Z 35010KT M01/M05 A3025 RMK A01 T10141047  RH  078%=      5-min Rain = 0
KCR1 141157Z 35010KT M01/M05 A3025 RMK A01 T10141047  RH  078%=      5-min Rain = 0
KCR1 141158Z 34010KT M01/M05 A3025 RMK A01 T10141047  RH  078%=      5-min Rain = 0
KCR1 141159Z 34010KT M01/M05 A3025 RMK A01 T10141047  RH  078%=      5-min Rain = 0
KCR1 141200Z 34010KT M01/M05 A3025 RMK A01 T10141047  RH  078%=      5-min Rain = 0
KCR1 141201Z 34010KT M01/M05 A3025 RMK A01 T10141047  RH  078%=      5-min Rain = 0
KCR1 141202Z 34009KT M01/M05 A3025 RMK A01 T10141047  RH  078%=      5-min Rain = 0
KCR1 141203Z 34010KT M01/M05 A3025 RMK A01 T10141047  RH  078%=      5-min Rain = 0
KCR1 141204Z 34010KT M01/M05 A3025 RMK A01 T10141047  RH  078%=      5-min Rain = 0
KCR1 141205Z 34010KT M01/M05 A3025 RMK A01 T10141047  RH  078%=      5-min Rain = 0
KCR1 141206Z 34009KT M01/M05 A3025 RMK A01 T10141047  RH  078%=      5-min Rain = 0
KCR1 141207Z 34010KT M01/M05 A3025 RMK A01 T10141047  RH  078%=      5-min Rain = 0
KCR1 141208Z 34009KT M01/M05 A3025 RMK A01 T10141047  RH  078%=      5-min Rain = 0
KCR1 141209Z 34010KT M01/M05 A3025 RMK A01 T10141047  RH  078%=      5-min Rain = 0
KCR1 141210Z 34010KT M01/M05 A3025 RMK A01 T10141047  RH  078%=      5-min Rain = 0
KCR1 141211Z 34010KT M01/M05 A3025 RMK A01 T10141047  RH  078%=      5-min Rain = 0
KCR1 141212Z 34010KT M01/M05 A3026 RMK A01 T10141048  RH  078%=      5-min Rain = 0
KCR1 141213Z 34009KT M01/M05 A3026 RMK A01 T10141048  RH  078%=      5-min Rain = 0
KCR1 141214Z 34011KT M01/M05 A3026 RMK A01 T10141048  RH  078%=      5-min Rain = 0
KCR1 141215Z 34010KT M01/M05 A3026 RMK A01 T10131048  RH  077%=      5-min Rain = 0
KCR1 141216Z 34010KT M01/M05 A3026 RMK A01 T10131048  RH  077%=      5-min Rain = 0
KCR1 141217Z 34010KT M01/M05 A3026 RMK A01 T10131048  RH  077%=      5-min Rain = 0
KCR1 141218Z 34009KT M01/M05 A3026 RMK A01 T10131049  RH  076%=      5-min Rain = 0
KCR1 141219Z 34009KT M01/M05 A3026 RMK A01 T10121049  RH  076%=      5-min Rain = 0
KCR1 141220Z 34009KT M01/M05 A3026 RMK A01 T10121048  RH  076%=      5-min Rain = 0
KCR1 141221Z 34009KT M01/M05 A3026 RMK A01 T10121049  RH  076%=      5-min Rain = 0
KCR1 141222Z 34009KT M01/M05 A3026 RMK A01 T10131048  RH  077%=      5-min Rain = 0
KCR1 141223Z 34010KT M01/M05 A3026 RMK A01 T10131048  RH  077%=      5-min Rain = 0
KCR1 141224Z 34010KT M01/M05 A3026 RMK A01 T10131048  RH  077%=      5-min Rain = 0
KCR1 141225Z 34011KT M01/M05 A3026 RMK A01 T10141049  RH  077%=      5-min Rain = 0
KCR1 141226Z 34011KT M01/M05 A3026 RMK A01 T10141048  RH  077%=      5-min Rain = 0
KCR1 141227Z 34010KT M01/M05 A3026 RMK A01 T10141049  RH  077%=      5-min Rain = 0
KCR1 141228Z 34011KT M01/M05 A3026 RMK A01 T10141049  RH  077%=      5-min Rain = 0
KCR1 141229Z 33011KT M01/M05 A3026 RMK A01 T10141048  RH  077%=      5-min Rain = 0
KCR1 141230Z 34010KT M01/M05 A3027 RMK A01 T10141048  RH  078%=      5-min Rain = 0
KCR1 141231Z 33011KT M02/M05 A3027 RMK A01 T10151048  RH  078%=      5-min Rain = 0
KCR1 141232Z 34010KT M02/M05 A3027 RMK A01 T10151049  RH  078%=      5-min Rain = 0
KCR1 141233Z 33010KT M01/M05 A3027 RMK A01 T10141048  RH  078%=      5-min Rain = 0
KCR1 141234Z 33010KT M01/M05 A3027 RMK A01 T10141049  RH  077%=      5-min Rain = 0
KCR1 141235Z 33010KT M01/M05 A3027 RMK A01 T10141049  RH  077%=      5-min Rain = 0
KCR1 141236Z 33010KT M01/M05 A3027 RMK A01 T10131049  RH  077%=      5-min Rain = 0
KCR1 141237Z 33010KT M01/M05 A3027 RMK A01 T10131049  RH  076%=      5-min Rain = 0
KCR1 141238Z 33009KT M01/M05 A3027 RMK A01 T10131049  RH  077%=      5-min Rain = 0
KCR1 141239Z 33009KT M01/M05 A3027 RMK A01 T10131049  RH  077%=      5-min Rain = 0
KCR1 141240Z 33009KT M01/M05 A3027 RMK A01 T10131048  RH  077%=      5-min Rain = 0
KCR1 141241Z 33009KT M01/M05 A3027 RMK A01 T10131049  RH  077%=      5-min Rain = 0
KCR1 141242Z 33009KT M01/M05 A3027 RMK A01 T10131048  RH  077%=      5-min Rain = 0
KCR1 141243Z 33008KT M01/M05 A3027 RMK A01 T10131048  RH  077%=      5-min Rain = 0
KCR1 141244Z 33008KT M01/M05 A3027 RMK A01 T10131048  RH  077%=      5-min Rain = 0
KCR1 141245Z 33009KT M01/M05 A3027 RMK A01 T10131048  RH  077%=      5-min Rain = 0
KCR1 141246Z 33008KT M01/M05 A3027 RMK A01 T10131048  RH  077%=      5-min Rain = 0
KCR1 141247Z 33008KT M01/M05 A3027 RMK A01 T10131048  RH  077%=      5-min Rain = 0
KCR1 141248Z 33008KT M01/M05 A3027 RMK A01 T10131048  RH  077%=      5-min Rain = 0
KCR1 141249Z 33008KT M01/M05 A3028 RMK A01 T10131048  RH  077%=      5-min Rain = 0
KCR1 141250Z 33008KT M01/M05 A3028 RMK A01 T10131048  RH  077%=      5-min Rain = 0
KCR1 141251Z 33008KT M01/M05 A3028 RMK A01 T10131048  RH  077%=      5-min Rain = 0
KCR1 141252Z 33008KT M01/M05 A3028 RMK A01 T10131048  RH  077%=      5-min Rain = 0
KCR1 141253Z 33008KT M01/M05 A3028 RMK A01 T10131048  RH  077%=      5-min Rain = 0
KCR1 141254Z 33008KT M01/M05 A3028 RMK A01 T10121048  RH  076%=      5-min Rain = 0
KCR1 141255Z 33009KT M01/M05 A3028 RMK A01 T10121048  RH  076%=      5-min Rain = 0
KCR1 141256Z 33009KT M01/M05 A3028 RMK A01 T10111048  RH  076%=      5-min Rain = 0
KCR1 141257Z 33009KT M01/M05 A3028 RMK A01 T10111048  RH  075%=      5-min Rain = 0
KCR1 141258Z 33009KT M01/M05 A3028 RMK A01 T10111049  RH  075%=      5-min Rain = 0
KCR1 141259Z 33009KT M01/M05 A3028 RMK A01 T10101048  RH  075%=      5-min Rain = 0
KCR1 141300Z 33009KT M01/M05 A3028 RMK A01 T10111048  RH  076%=      5-min Rain = 0
KCR1 141301Z 33008KT M01/M05 A3028 RMK A01 T10101048  RH  076%=      5-min Rain = 0
KCR1 141302Z 33008KT M01/M05 A3028 RMK A01 T10101048  RH  076%=      5-min Rain = 0
KCR1 141303Z 33008KT M01/M05 A3028 RMK A01 T10101048  RH  076%=      5-min Rain = 0
KCR1 141304Z 33008KT M01/M05 A3028 RMK A01 T10101048  RH  075%=      5-min Rain = 0
KCR1 141305Z 33009KT M01/M05 A3028 RMK A01 T10101048  RH  075%=      5-min Rain = 0
KCR1 141306Z 33009KT M01/M05 A3028 RMK A01 T10101048  RH  075%=      5-min Rain = 0
KCR1 141307Z 33010KT M01/M05 A3028 RMK A01 T10091048  RH  075%=      5-min Rain = 0
KCR1 141308Z 33009KT M01/M05 A3029 RMK A01 T10101048  RH  075%=      5-min Rain = 0
KCR1 141309Z 34010KT M01/M05 A3029 RMK A01 T10091048  RH  075%=      5-min Rain = 0
KCR1 141310Z 33009KT M01/M05 A3029 RMK A01 T10091048  RH  075%=      5-min Rain = 0
KCR1 141311Z 33010KT M01/M05 A3029 RMK A01 T10091048  RH  075%=      5-min Rain = 0
KCR1 141312Z 34009KT M01/M05 A3029 RMK A01 T10091048  RH  075%=      5-min Rain = 0
KCR1 141313Z 34009KT M01/M05 A3029 RMK A01 T10091047  RH  075%=      5-min Rain = 0
KCR1 141314Z 34009KT M01/M05 A3029 RMK A01 T10091047  RH  075%=      5-min Rain = 0
KCR1 141315Z 33009KT M01/M05 A3029 RMK A01 T10091047  RH  075%=      5-min Rain = 0
KCR1 141316Z 34009KT M01/M05 A3029 RMK A01 T10091047  RH  076%=      5-min Rain = 0
KCR1 141317Z 34009KT M01/M05 A3029 RMK A01 T10091047  RH  076%=      5-min Rain = 0
KCR1 141318Z 34009KT M01/M05 A3029 RMK A01 T10091047  RH  075%=      5-min Rain = 0
KCR1 141319Z 34009KT M01/M05 A3029 RMK A01 T10091047  RH  075%=      5-min Rain = 0
KCR1 141320Z 34008KT M01/M05 A3029 RMK A01 T10091047  RH  075%=      5-min Rain = 0
KCR1 141321Z 34009KT M01/M05 A3029 RMK A01 T10091047  RH  075%=      5-min Rain = 0
KCR1 141322Z 34008KT M01/M05 A3029 RMK A01 T10091046  RH  076%=      5-min Rain = 0
KCR1 141323Z 34009KT M01/M05 A3029 RMK A01 T10091046  RH  076%=      5-min Rain = 0
KCR1 141324Z 34009KT M01/M05 A3029 RMK A01 T10091046  RH  076%=      5-min Rain = 0
KCR1 141325Z 34009KT M01/M05 A3029 RMK A01 T10081046  RH  076%=      5-min Rain = 0
KCR1 141326Z 34009KT M01/M05 A3029 RMK A01 T10081045  RH  076%=      5-min Rain = 0
KCR1 141327Z 34009KT M01/M05 A303 RMK A01 T10081046  RH  076%=      5-min Rain = 0
KCR1 141328Z 34009KT M01/M05 A303 RMK A01 T10081046  RH  076%=      5-min Rain = 0
KCR1 141329Z 34009KT M01/M05 A303 RMK A01 T10071045  RH  076%=      5-min Rain = 0
KCR1 141330Z 34010KT M01/M05 A303 RMK A01 T10071045  RH  076%=      5-min Rain = 0
KCR1 141331Z 34010KT M01/M04 A303 RMK A01 T10071044  RH  076%=      5-min Rain = 0
KCR1 141332Z 34009KT M01/M04 A303 RMK A01 T10061044  RH  075%=      5-min Rain = 0
KCR1 141333Z 34009KT M01/M04 A303 RMK A01 T10061044  RH  075%=      5-min Rain = 0
KCR1 141334Z 34008KT M01/M04 A303 RMK A01 T10061044  RH  075%=      5-min Rain = 0
KCR1 141335Z 34008KT M01/M04 A303 RMK A01 T10051043  RH  075%=      5-min Rain = 0
KCR1 141336Z 34009KT M01/M04 A303 RMK A01 T10051043  RH  075%=      5-min Rain = 0
KCR1 141337Z 34008KT M00/M04 A303 RMK A01 T10041043  RH  075%=      5-min Rain = 0
KCR1 141338Z 34008KT M00/M04 A303 RMK A01 T10041043  RH  075%=      5-min Rain = 0
KCR1 141339Z 34008KT M00/M04 A303 RMK A01 T10031042  RH  075%=      5-min Rain = 0
KCR1 141340Z 34008KT M00/M04 A303 RMK A01 T10031041  RH  075%=      5-min Rain = 0
KCR1 141341Z 34008KT M00/M04 A303 RMK A01 T10031042  RH  075%=      5-min Rain = 0
KCR1 141342Z 34008KT M00/M04 A303 RMK A01 T10021041  RH  075%=      5-min Rain = 0
KCR1 141343Z 34009KT M00/M04 A303 RMK A01 T10011041  RH  075%=      5-min Rain = 0
KCR1 141344Z 34009KT M00/M04 A3031 RMK A01 T10011041  RH  075%=      5-min Rain = 0
KCR1 141345Z 34009KT 00/04 A3031 RMK A01 T00000-40  RH  074%=      5-min Rain = 0
KCR1 141346Z 34010KT 00/04 A3031 RMK A01 T00000-40  RH  074%=      5-min Rain = 0
KCR1 141347Z 34010KT 00/M04 A3031 RMK A01 T00011040  RH  074%=      5-min Rain = 0
KCR1 141348Z 35009KT 00/M04 A3031 RMK A01 T00011040  RH  074%=      5-min Rain = 0
KCR1 141349Z 35009KT 00/M04 A3031 RMK A01 T00021039  RH  074%=      5-min Rain = 0
KCR1 141350Z 35009KT 00/M04 A3031 RMK A01 T00031039  RH  073%=      5-min Rain = 0
KCR1 141351Z 35009KT 00/M04 A3031 RMK A01 T00041038  RH  073%=      5-min Rain = 0
KCR1 141352Z 34009KT 00/M04 A3031 RMK A01 T00041038  RH  073%=      5-min Rain = 0
KCR1 141353Z 35009KT 01/M04 A3031 RMK A01 T00051037  RH  073%=      5-min Rain = 0
KCR1 141354Z 35009KT 01/M04 A3032 RMK A01 T00061037  RH  073%=      5-min Rain = 0
KCR1 141355Z 34009KT 01/M04 A3032 RMK A01 T00071036  RH  073%=      5-min Rain = 0
KCR1 141356Z 35009KT 01/M04 A3032 RMK A01 T00071036  RH  073%=      5-min Rain = 0
KCR1 141357Z 35009KT 01/M04 A3032 RMK A01 T00081036  RH  073%=      5-min Rain = 0
KCR1 141358Z 34009KT 01/M04 A3032 RMK A01 T00081035  RH  073%=      5-min Rain = 0
KCR1 141359Z 35009KT 01/M04 A3032 RMK A01 T00081036  RH  072%=      5-min Rain = 0
KCR1 141400Z 34009KT 01/M04 A3032 RMK A01 T00091036  RH  072%=      5-min Rain = 0
KCR1 141401Z 34009KT 01/M04 A3032 RMK A01 T00091035  RH  072%=      5-min Rain = 0
KCR1 141402Z 34009KT 01/M04 A3032 RMK A01 T00101035  RH  072%=      5-min Rain = 0
KCR1 141403Z 34009KT 01/M03 A3032 RMK A01 T00111034  RH  072%=      5-min Rain = 0
KCR1 141404Z 35010KT 01/M03 A3032 RMK A01 T00111034  RH  072%=      5-min Rain = 0
KCR1 141405Z 34009KT 01/M03 A3032 RMK A01 T00121034  RH  071%=      5-min Rain = 0
KCR1 141406Z 35009KT 01/M03 A3032 RMK A01 T00121034  RH  071%=      5-min Rain = 0
KCR1 141407Z 34009KT 01/M03 A3032 RMK A01 T00131033  RH  072%=      5-min Rain = 0
KCR1 141408Z 34010KT 01/M03 A3032 RMK A01 T00131032  RH  072%=      5-min Rain = 0
KCR1 141409Z 34009KT 01/M03 A3033 RMK A01 T00141032  RH  071%=      5-min Rain = 0
KCR1 141410Z 34010KT 01/M03 A3033 RMK A01 T00141032  RH  071%=      5-min Rain = 0
KCR1 141411Z 34009KT 02/M03 A3033 RMK A01 T00151032  RH  071%=      5-min Rain = 0
KCR1 141412Z 34009KT 02/M03 A3033 RMK A01 T00161031  RH  071%=      5-min Rain = 0
KCR1 141413Z 34009KT 02/M03 A3033 RMK A01 T00161031  RH  071%=      5-min Rain = 0
KCR1 141414Z 34010KT 02/M03 A3033 RMK A01 T00171031  RH  071%=      5-min Rain = 0
KCR1 141415Z 34010KT 02/M03 A3033 RMK A01 T00181030  RH  071%=      5-min Rain = 0
KCR1 141416Z 35009KT 02/M03 A3033 RMK A01 T00181030  RH  071%=      5-min Rain = 0
KCR1 141417Z 35008KT 02/M03 A3033 RMK A01 T00181029  RH  071%=      5-min Rain = 0
KCR1 141418Z 35008KT 02/M03 A3033 RMK A01 T00191029  RH  071%=      5-min Rain = 0
KCR1 141419Z 35009KT 02/M03 A3033 RMK A01 T00191029  RH  071%=      5-min Rain = 0
KCR1 141420Z 35009KT 02/M03 A3033 RMK A01 T00201028  RH  071%=      5-min Rain = 0
KCR1 141421Z 35009KT 02/M03 A3034 RMK A01 T00201027  RH  071%=      5-min Rain = 0
KCR1 141422Z 35009KT 02/M03 A3034 RMK A01 T00211026  RH  071%=      5-min Rain = 0
KCR1 141423Z 35009KT 02/M03 A3034 RMK A01 T00211026  RH  071%=      5-min Rain = 0
KCR1 141424Z 35009KT 02/M03 A3034 RMK A01 T00221026  RH  071%=      5-min Rain = 0
KCR1 141425Z 35009KT 02/M03 A3034 RMK A01 T00221025  RH  071%=      5-min Rain = 0
KCR1 141426Z 35009KT 02/M02 A3034 RMK A01 T00231024  RH  071%=      5-min Rain = 0
KCR1 141427Z 36009KT 02/M02 A3034 RMK A01 T00241024  RH  071%=      5-min Rain = 0
KCR1 141428Z 35009KT 02/M02 A3034 RMK A01 T00241024  RH  070%=      5-min Rain = 0
KCR1 141429Z 35010KT 02/M02 A3034 RMK A01 T00241023  RH  071%=      5-min Rain = 0
KCR1 141430Z 35008KT 03/M02 A3034 RMK A01 T00251023  RH  071%=      5-min Rain = 0
KCR1 141431Z 36009KT 03/M02 A3034 RMK A01 T00261022  RH  071%=      5-min Rain = 0
KCR1 141432Z 35009KT 03/M02 A3034 RMK A01 T00271021  RH  070%=      5-min Rain = 0
KCR1 141433Z 35010KT 03/M02 A3034 RMK A01 T00281021  RH  070%=      5-min Rain = 0
KCR1 141434Z 35009KT 03/M02 A3035 RMK A01 T00291021  RH  070%=      5-min Rain = 0
KCR1 141435Z 36010KT 03/M02 A3035 RMK A01 T00291020  RH  070%=      5-min Rain = 0
KCR1 141436Z 36009KT 03/M02 A3035 RMK A01 T00301021  RH  069%=      5-min Rain = 0
KCR1 141437Z 35010KT 03/M02 A3035 RMK A01 T00301020  RH  070%=      5-min Rain = 0
KCR1 141438Z 35009KT 03/M02 A3035 RMK A01 T00301020  RH  069%=      5-min Rain = 0
KCR1 141439Z 00010KT 03/M02 A3035 RMK A01 T00321017  RH  070%=      5-min Rain = 0
KCR1 141440Z 36010KT 03/M02 A3035 RMK A01 T00341016  RH  070%=      5-min Rain = 0
KCR1 141441Z 00012KT 04/M02 A3035 RMK A01 T00351016  RH  069%=      5-min Rain = 0
KCR1 141442Z 01012KT 04/M02 A3035 RMK A01 T00361016  RH  069%=      5-min Rain = 0
KCR1 141443Z 00011KT 04/M02 A3035 RMK A01 T00371017  RH  068%=      5-min Rain = 0
KCR1 141444Z 00011KT 04/M02 A3035 RMK A01 T00381015  RH  068%=      5-min Rain = 0
KCR1 141445Z 00014KT 04/M02 A3035 RMK A01 T00391015  RH  068%=      5-min Rain = 0
KCR1 141446Z 01012KT 04/M02 A3035 RMK A01 T00401015  RH  068%=      5-min Rain = 0
KCR1 141447Z 01012KT 04/M01 A3036 RMK A01 T00411014  RH  068%=      5-min Rain = 0
KCR1 141448Z 00011KT 04/M01 A3036 RMK A01 T00421013  RH  067%=      5-min Rain = 0
KCR1 141449Z 00011KT 04/M01 A3036 RMK A01 T00421013  RH  067%=      5-min Rain = 0
KCR1 141450Z 01010KT 04/M01 A3036 RMK A01 T00431013  RH  067%=      5-min Rain = 0
KCR1 141451Z 00012KT 04/M01 A3036 RMK A01 T00441012  RH  067%=      5-min Rain = 0
KCR1 141452Z 35011KT 04/M01 A3036 RMK A01 T00441012  RH  067%=      5-min Rain = 0
KCR1 141453Z 00010KT 05/M01 A3036 RMK A01 T00451012  RH  067%=      5-min Rain = 0
KCR1 141454Z 01011KT 05/M01 A3036 RMK A01 T00451011  RH  067%=      5-min Rain = 0
KCR1 141455Z 01010KT 05/M01 A3036 RMK A01 T00461012  RH  066%=      5-min Rain = 0
KCR1 141456Z 00011KT 05/M01 A3036 RMK A01 T00461012  RH  066%=      5-min Rain = 0
KCR1 141457Z 02010KT 05/M01 A3036 RMK A01 T00471011  RH  066%=      5-min Rain = 0
KCR1 141458Z 01009KT 05/M01 A3036 RMK A01 T00481009  RH  067%=      5-min Rain = 0
KCR1 141459Z 01010KT 05/M01 A3036 RMK A01 T00491008  RH  066%=      5-min Rain = 0
KCR1 141500Z 01012KT 05/M01 A3036 RMK A01 T00501009  RH  066%=      5-min Rain = 0
KCR1 141501Z 01012KT 05/M01 A3037 RMK A01 T00501010  RH  065%=      5-min Rain = 0
KCR1 141502Z 00011KT 05/M01 A3037 RMK A01 T00501010  RH  065%=      5-min Rain = 0
KCR1 141503Z 00012KT 05/M01 A3037 RMK A01 T00501011  RH  065%=      5-min Rain = 0
KCR1 141504Z 01013KT 05/M01 A3037 RMK A01 T00501012  RH  065%=      5-min Rain = 0
KCR1 141505Z 01012KT 05/M01 A3037 RMK A01 T00501011  RH  065%=      5-min Rain = 0
KCR1 141506Z 01012KT 05/M01 A3037 RMK A01 T00511010  RH  065%=      5-min Rain = 0
KCR1 141507Z 02010KT 05/M01 A3037 RMK A01 T00511009  RH  065%=      5-min Rain = 0
KCR1 141508Z 00010KT 05/M01 A3037 RMK A01 T00531006  RH  065%=      5-min Rain = 0
KCR1 141509Z 01013KT 06/M01 A3037 RMK A01 T00551009  RH  064%=      5-min Rain = 0
KCR1 141510Z 01012KT 05/M01 A3037 RMK A01 T00531011  RH  063%=      5-min Rain = 0
KCR1 141511Z 01010KT 05/M01 A3037 RMK A01 T00521010  RH  064%=      5-min Rain = 0
KCR1 141512Z 01012KT 05/M01 A3037 RMK A01 T00531009  RH  064%=      5-min Rain = 0
KCR1 141513Z 01012KT 05/M01 A3037 RMK A01 T00541009  RH  064%=      5-min Rain = 0
KCR1 141514Z 01012KT 06/M01 A3038 RMK A01 T00551009  RH  063%=      5-min Rain = 0
KCR1 141515Z 01012KT 06/M01 A3038 RMK A01 T00561009  RH  063%=      5-min Rain = 0
KCR1 141516Z 01011KT 06/M01 A3038 RMK A01 T00561009  RH  063%=      5-min Rain = 0
KCR1 141517Z 02012KT 06/M01 A3038 RMK A01 T00561008  RH  063%=      5-min Rain = 0
KCR1 141518Z 01012KT 06/M01 A3038 RMK A01 T00581008  RH  063%=      5-min Rain = 0
KCR1 141519Z 01012KT 06/M01 A3038 RMK A01 T00581008  RH  063%=      5-min Rain = 0
KCR1 141520Z 01011KT 06/M01 A3038 RMK A01 T00591008  RH  062%=      5-min Rain = 0
KCR1 141521Z 02011KT 06/M01 A3038 RMK A01 T00591006  RH  063%=      5-min Rain = 0
KCR1 141522Z 02011KT 06/M01 A3038 RMK A01 T00601007  RH  062%=      5-min Rain = 0
KCR1 141523Z 02008KT 06/M01 A3038 RMK A01 T00601006  RH  062%=      5-min Rain = 0
KCR1 141524Z 02011KT 06/M00 A3038 RMK A01 T00621003  RH  063%=      5-min Rain = 0
KCR1 141525Z 03011KT 06/M00 A3038 RMK A01 T00641004  RH  062%=      5-min Rain = 0
KCR1 141526Z 03010KT 06/M01 A3038 RMK A01 T00641006  RH  061%=      5-min Rain = 0
KCR1 141527Z 02011KT 06/M01 A3038 RMK A01 T00631006  RH  061%=      5-min Rain = 0
KCR1 141528Z 02013KT 06/M01 A3038 RMK A01 T00641006  RH  061%=      5-min Rain = 0
KCR1 141529Z 03012KT 06/M01 A3038 RMK A01 T00631006  RH  061%=      5-min Rain = 0
KCR1 141530Z 02011KT 06/M01 A3038 RMK A01 T00641005  RH  061%=      5-min Rain = 0
KCR1 141531Z 02012KT 06/M01 A3038 RMK A01 T00641005  RH  061%=      5-min Rain = 0
KCR1 141532Z 03011KT 07/M00 A3038 RMK A01 T00651004  RH  061%=      5-min Rain = 0
KCR1 141533Z 03010KT 07/M00 A3038 RMK A01 T00661004  RH  061%=      5-min Rain = 0
KCR1 141534Z 03010KT 07/M00 A3038 RMK A01 T00671002  RH  061%=      5-min Rain = 0
KCR1 141535Z 03011KT 07/M00 A3038 RMK A01 T00681002  RH  061%=      5-min Rain = 0
KCR1 141536Z 03011KT 07/M00 A3038 RMK A01 T00691003  RH  060%=      5-min Rain = 0
KCR1 141537Z 02011KT 07/M00 A3038 RMK A01 T00691002  RH  061%=      5-min Rain = 0
KCR1 141538Z 03012KT 07/M00 A3038 RMK A01 T00691002  RH  061%=      5-min Rain = 0
KCR1 141539Z 03011KT 07/M00 A3038 RMK A01 T00701002  RH  060%=      5-min Rain = 0
KCR1 141540Z 04011KT 07/M00 A3038 RMK A01 T00701004  RH  059%=      5-min Rain = 0
KCR1 141541Z 04010KT 07/M00 A3038 RMK A01 T00691003  RH  060%=      5-min Rain = 0
KCR1 141542Z 03013KT 07/M00 A3039 RMK A01 T00701002  RH  060%=      5-min Rain = 0
KCR1 141543Z 03012KT 07/M00 A3039 RMK A01 T00701003  RH  060%=      5-min Rain = 0
KCR1 141544Z 03012KT 07/M00 A3039 RMK A01 T00701001  RH  060%=      5-min Rain = 0
KCR1 141545Z 03010KT 07/M00 A3039 RMK A01 T00721001  RH  060%=      5-min Rain = 0
KCR1 141546Z 03012KT 07/M00 A3039 RMK A01 T00731001  RH  060%=      5-min Rain = 0
KCR1 141547Z 03012KT 07/M00 A3039 RMK A01 T00721002  RH  059%=      5-min Rain = 0
KCR1 141548Z 03012KT 07/M00 A3039 RMK A01 T00721003  RH  059%=      5-min Rain = 0
KCR1 141549Z 02012KT 07/M00 A3039 RMK A01 T00711003  RH  059%=      5-min Rain = 0
KCR1 141550Z 02013KT 07/M00 A3039 RMK A01 T00711002  RH  060%=      5-min Rain = 0
KCR1 141551Z 03013KT 07/M00 A3039 RMK A01 T00711001  RH  060%=      5-min Rain = 0
KCR1 141552Z 03012KT 07/M00 A3039 RMK A01 T00731001  RH  059%=      5-min Rain = 0
KCR1 141553Z 03011KT 07/M00 A3039 RMK A01 T00721002  RH  059%=      5-min Rain = 0
KCR1 141554Z 03013KT 07/00 A3039 RMK A01 T007300-0  RH  060%=      5-min Rain = 0
KCR1 141555Z 04014KT 07/M00 A3039 RMK A01 T00731002  RH  059%=      5-min Rain = 0
KCR1 141556Z 04011KT 07/M00 A3039 RMK A01 T00731002  RH  059%=      5-min Rain = 0
KCR1 141557Z 03011KT 07/M00 A3039 RMK A01 T00731003  RH  059%=      5-min Rain = 0
KCR1 141558Z 04012KT 07/00 A3039 RMK A01 T007300-0  RH  060%=      5-min Rain = 0
KCR1 141559Z 03013KT 08/00 A3039 RMK A01 T00750000  RH  059%=      5-min Rain = 0
KCR1 141600Z 03013KT 08/00 A3039 RMK A01 T00750000  RH  059%=      5-min Rain = 0
KCR1 141601Z 03014KT 08/00 A3039 RMK A01 T00760000  RH  059%=      5-min Rain = 0
KCR1 141602Z 03013KT 08/00 A3039 RMK A01 T00770000  RH  058%=      5-min Rain = 0
KCR1 141603Z 04011KT 08/00 A3039 RMK A01 T00780002  RH  058%=      5-min Rain = 0
KCR1 141604Z 02013KT 08/00 A3039 RMK A01 T00800002  RH  058%=      5-min Rain = 0
KCR1 141605Z 03013KT 08/00 A3039 RMK A01 T007900-0  RH  057%=      5-min Rain = 0
KCR1 141606Z 03011KT 08/00 A304 RMK A01 T00790002  RH  058%=      5-min Rain = 0
KCR1 141607Z 03014KT 08/00 A304 RMK A01 T00810003  RH  058%=      5-min Rain = 0
KCR1 141608Z 03014KT 08/00 A304 RMK A01 T00830002  RH  057%=      5-min Rain = 0
KCR1 141609Z 05012KT 08/00 A304 RMK A01 T00830003  RH  057%=      5-min Rain = 0
KCR1 141610Z 05012KT 08/00 A304 RMK A01 T00840003  RH  057%=      5-min Rain = 0
KCR1 141611Z 04011KT 09/00 A304 RMK A01 T00850003  RH  056%=      5-min Rain = 0
KCR1 141612Z 03012KT 09/00 A304 RMK A01 T00850003  RH  056%=      5-min Rain = 0
KCR1 141613Z 03013KT 09/00 A304 RMK A01 T00860002  RH  056%=      5-min Rain = 0
KCR1 141614Z 03012KT 09/00 A304 RMK A01 T00850002  RH  056%=      5-min Rain = 0
KCR1 141615Z 05013KT 08/00 A304 RMK A01 T00840001  RH  056%=      5-min Rain = 0
KCR1 141616Z 05012KT 08/00 A304 RMK A01 T00840001  RH  056%=      5-min Rain = 0
KCR1 141617Z 05010G15KT 08/00 A304 RMK A01 T00840003  RH  057%=      5-min Rain = 0
KCR1 141618Z 04013KT 09/00 A304 RMK A01 T00870004  RH  056%=      5-min Rain = 0
KCR1 141619Z 04014KT 09/00 A304 RMK A01 T00870002  RH  055%=      5-min Rain = 0
KCR1 141620Z 04016KT 09/00 A304 RMK A01 T00860001  RH  055%=      5-min Rain = 0
KCR1 141621Z 03015KT 09/00 A304 RMK A01 T00860001  RH  055%=      5-min Rain = 0
KCR1 141622Z 04014KT 09/00 A304 RMK A01 T00860001  RH  055%=      5-min Rain = 0
KCR1 141623Z 04011KT 09/00 A304 RMK A01 T00870003  RH  056%=      5-min Rain = 0
KCR1 141624Z 05012KT 09/00 A304 RMK A01 T00890004  RH  055%=      5-min Rain = 0
KCR1 141625Z 03012KT 09/00 A304 RMK A01 T00900003  RH  055%=      5-min Rain = 0
KCR1 141626Z 03015KT 09/00 A304 RMK A01 T00900002  RH  054%=      5-min Rain = 0
KCR1 141627Z 03016KT 09/00 A304 RMK A01 T008900-0  RH  053%=      5-min Rain = 0
KCR1 141628Z 03016KT 09/00 A304 RMK A01 T00890003  RH  055%=      5-min Rain = 0
KCR1 141629Z 03016KT 09/00 A304 RMK A01 T00910001  RH  054%=      5-min Rain = 0
KCR1 141630Z 03016KT 09/00 A304 RMK A01 T00910002  RH  054%=      5-min Rain = 0
KCR1 141631Z 03014G19KT 09/00 A304 RMK A01 T00920001  RH  053%=      5-min Rain = 0
KCR1 141632Z 04017G22KT 09/00 A304 RMK A01 T009100-0  RH  053%=      5-min Rain = 0
KCR1 141633Z 04017KT 09/M00 A304 RMK A01 T00901001  RH  053%=      5-min Rain = 0
KCR1 141634Z 04015KT 09/00 A304 RMK A01 T00900000  RH  054%=      5-min Rain = 0
KCR1 141635Z 04016KT 09/00 A304 RMK A01 T00920003  RH  054%=      5-min Rain = 0
KCR1 141636Z 03014KT 09/00 A304 RMK A01 T00940003  RH  053%=      5-min Rain = 0
KCR1 141637Z 03015KT 10/00 A304 RMK A01 T00950002  RH  052%=      5-min Rain = 0
KCR1 141638Z 03017KT 10/00 A304 RMK A01 T00950001  RH  052%=      5-min Rain = 0
KCR1 141639Z 04018KT 10/00 A304 RMK A01 T00950001  RH  052%=      5-min Rain = 0
KCR1 141640Z 04018KT 09/00 A304 RMK A01 T00940000  RH  052%=      5-min Rain = 0
KCR1 141641Z 04018KT 09/00 A304 RMK A01 T00940001  RH  052%=      5-min Rain = 0
KCR1 141642Z 04017KT 10/00 A304 RMK A01 T00950001  RH  052%=      5-min Rain = 0
KCR1 141643Z 03017KT 10/00 A304 RMK A01 T00960002  RH  052%=      5-min Rain = 0
KCR1 141644Z 04017KT 10/00 A304 RMK A01 T00970002  RH  052%=      5-min Rain = 0
KCR1 141645Z 04018KT 10/00 A304 RMK A01 T00980001  RH  051%=      5-min Rain = 0
KCR1 141646Z 04016KT 10/00 A304 RMK A01 T00970001  RH  051%=      5-min Rain = 0
KCR1 141647Z 03018KT 10/00 A304 RMK A01 T00970000  RH  051%=      5-min Rain = 0
KCR1 141648Z 03016KT 10/00 A304 RMK A01 T009600-0  RH  051%=      5-min Rain = 0
KCR1 141649Z 04016KT 10/M00 A304 RMK A01 T00951001  RH  051%=      5-min Rain = 0
KCR1 141650Z 04016KT 10/00 A304 RMK A01 T00950001  RH  052%=      5-min Rain = 0
KCR1 141651Z 04016KT 10/00 A304 RMK A01 T00970000  RH  051%=      5-min Rain = 0
KCR1 141652Z 04017KT 10/00 A304 RMK A01 T00970000  RH  051%=      5-min Rain = 0
KCR1 141653Z 04015KT 10/00 A3041 RMK A01 T00980001  RH  051%=      5-min Rain = 0
KCR1 141654Z 04014KT 10/00 A3041 RMK A01 T00980000  RH  051%=      5-min Rain = 0
KCR1 141655Z 03015KT 10/00 A3041 RMK A01 T00980001  RH  051%=      5-min Rain = 0
KCR1 141656Z 05013KT 10/00 A3041 RMK A01 T00990001  RH  050%=      5-min Rain = 0
KCR1 141657Z 03015KT 10/00 A3041 RMK A01 T00990001  RH  051%=      5-min Rain = 0
KCR1 141658Z 03015KT 10/00 A3041 RMK A01 T01000003  RH  051%=      5-min Rain = 0
KCR1 141659Z 04015KT 10/00 A3041 RMK A01 T01020003  RH  050%=      5-min Rain = 0
KCR1 141700Z 04014KT 10/00 A3041 RMK A01 T01010001  RH  050%=      5-min Rain = 0
KCR1 141701Z 05012KT 10/00 A3041 RMK A01 T01010002  RH  050%=      5-min Rain = 0
KCR1 141702Z 04014KT 10/00 A3041 RMK A01 T01020004  RH  051%=      5-min Rain = 0
KCR1 141703Z 04013KT 10/00 A3041 RMK A01 T01030002  RH  049%=      5-min Rain = 0
KCR1 141704Z 04015KT 10/00 A3041 RMK A01 T01020002  RH  050%=      5-min Rain = 0
KCR1 141705Z 04016KT 10/00 A3041 RMK A01 T01020001  RH  050%=      5-min Rain = 0
KCR1 141706Z 04016KT 10/00 A3041 RMK A01 T010100-0  RH  049%=      5-min Rain = 0
KCR1 141707Z 05015KT 10/M00 A3041 RMK A01 T01001001  RH  049%=      5-min Rain = 0
KCR1 141708Z 05016KT 10/00 A3041 RMK A01 T01000001  RH  050%=      5-min Rain = 0
KCR1 141709Z 03016KT 10/00 A3041 RMK A01 T01020002  RH  050%=      5-min Rain = 0
KCR1 141710Z 04015KT 10/00 A3041 RMK A01 T01040003  RH  050%=      5-min Rain = 0
KCR1 141711Z 05014KT 11/00 A3041 RMK A01 T01050001  RH  049%=      5-min Rain = 0
KCR1 141712Z 05014KT 10/00 A3041 RMK A01 T01040002  RH  049%=      5-min Rain = 0
KCR1 141713Z 04014KT 11/00 A3041 RMK A01 T01060002  RH  049%=      5-min Rain = 0
KCR1 141714Z 02015KT 11/00 A3041 RMK A01 T01060002  RH  048%=      5-min Rain = 0
KCR1 141715Z 03015KT 11/00 A3041 RMK A01 T01060000  RH  048%=      5-min Rain = 0
KCR1 141716Z 05018KT 10/M00 A3041 RMK A01 T01041001  RH  048%=      5-min Rain = 0
KCR1 141717Z 05016KT 10/M00 A3041 RMK A01 T01021003  RH  048%=      5-min Rain = 0
KCR1 141718Z 05016KT 10/M00 A3041 RMK A01 T01021002  RH  049%=      5-min Rain = 0
KCR1 141719Z 05016KT 10/00 A3041 RMK A01 T01040001  RH  049%=      5-min Rain = 0
KCR1 141720Z 05015KT 11/00 A3041 RMK A01 T01050000  RH  048%=      5-min Rain = 0
KCR1 141721Z 05016KT 11/00 A3041 RMK A01 T01050000  RH  048%=      5-min Rain = 0
KCR1 141722Z 04014KT 11/M00 A3041 RMK A01 T01051001  RH  048%=      5-min Rain = 0
KCR1 141723Z 03011KT 10/00 A3041 RMK A01 T01040001  RH  049%=      5-min Rain = 0
KCR1 141724Z 04014KT 10/00 A3041 RMK A01 T01040001  RH  049%=      5-min Rain = 0
KCR1 141725Z 05016KT 11/00 A3041 RMK A01 T01050000  RH  048%=      5-min Rain = 0
KCR1 141726Z 05016KT 11/00 A3041 RMK A01 T01070000  RH  048%=      5-min Rain = 0
KCR1 141727Z 05014KT 11/00 A3041 RMK A01 T01070001  RH  048%=      5-min Rain = 0
KCR1 141728Z 03014KT 11/00 A3041 RMK A01 T01070000  RH  048%=      5-min Rain = 0
KCR1 141729Z 03017KT 11/00 A3041 RMK A01 T01070000  RH  048%=      5-min Rain = 0
KCR1 141730Z 03017KT 11/M00 A3041 RMK A01 T01071001  RH  047%=      5-min Rain = 0
KCR1 141731Z 03017KT 11/M00 A3041 RMK A01 T01051002  RH  047%=      5-min Rain = 0
KCR1 141732Z 03014KT 10/M00 A3041 RMK A01 T01031003  RH  048%=      5-min Rain = 0
KCR1 141733Z 02017KT 11/00 A3041 RMK A01 T01050000  RH  048%=      5-min Rain = 0
KCR1 141734Z 03017KT 11/M00 A3041 RMK A01 T01061001  RH  048%=      5-min Rain = 0
KCR1 141735Z 03015KT 11/M00 A3041 RMK A01 T01051002  RH  048%=      5-min Rain = 0
KCR1 141736Z 03015KT 10/M00 A3041 RMK A01 T01041002  RH  048%=      5-min Rain = 0
KCR1 141737Z 03016KT 10/M00 A3041 RMK A01 T01031003  RH  048%=      5-min Rain = 0
KCR1 141738Z 03017KT 10/M00 A3041 RMK A01 T01041001  RH  048%=      5-min Rain = 0
KCR1 141739Z 03016KT 11/00 A3041 RMK A01 T01070001  RH  048%=      5-min Rain = 0
KCR1 141740Z 03015KT 11/M00 A3041 RMK A01 T01071001  RH  047%=      5-min Rain = 0
KCR1 141741Z 04013KT 11/M00 A3041 RMK A01 T01051002  RH  047%=      5-min Rain = 0
KCR1 141742Z 03012KT 10/M00 A3041 RMK A01 T01031003  RH  048%=      5-min Rain = 0
KCR1 141743Z 03012KT 10/M00 A3041 RMK A01 T01031001  RH  048%=      5-min Rain = 0
KCR1 141744Z 02013G18KT 11/00 A3041 RMK A01 T010500-0  RH  048%=      5-min Rain = 0
KCR1 141745Z 02015KT 11/M00 A3041 RMK A01 T01061001  RH  048%=      5-min Rain = 0
KCR1 141746Z 03015KT 11/M00 A3041 RMK A01 T01061001  RH  047%=      5-min Rain = 0
KCR1 141747Z 03015KT 11/M00 A3041 RMK A01 T01061001  RH  047%=      5-min Rain = 0
KCR1 141748Z 03015KT 11/M00 A3041 RMK A01 T01061002  RH  047%=      5-min Rain = 0
KCR1 141749Z 03012KT 11/M00 A3041 RMK A01 T01051001  RH  048%=      5-min Rain = 0
KCR1 141750Z 04011KT 11/00 A304 RMK A01 T010600-0  RH  048%=      5-min Rain = 0
KCR1 141751Z 04011KT 11/00 A304 RMK A01 T01090001  RH  047%=      5-min Rain = 0
KCR1 141752Z 05013KT 11/M00 A304 RMK A01 T01091001  RH  047%=      5-min Rain = 0
KCR1 141753Z 05014KT 11/M00 A304 RMK A01 T01081001  RH  047%=      5-min Rain = 0
KCR1 141754Z 06012KT 11/M00 A304 RMK A01 T01071001  RH  047%=      5-min Rain = 0
KCR1 141755Z 05008KT 11/M00 A304 RMK A01 T01071001  RH  047%=      5-min Rain = 0
KCR1 141756Z 05013KT 11/00 A304 RMK A01 T01080000  RH  047%=      5-min Rain = 0
KCR1 141757Z 06012KT 11/00 A304 RMK A01 T01090000  RH  047%=      5-min Rain = 0
KCR1 141758Z 05010KT 11/00 A304 RMK A01 T01090001  RH  047%=      5-min Rain = 0
KCR1 141759Z 04011KT 11/00 A304 RMK A01 T01100000  RH  047%=      5-min Rain = 0
KCR1 141800Z 04010KT 11/00 A304 RMK A01 T01100000  RH  047%=      5-min Rain = 0
KCR1 141801Z 03013KT 11/00 A304 RMK A01 T01110002  RH  047%=      5-min Rain = 0
KCR1 141802Z 04015KT 11/M00 A304 RMK A01 T01111001  RH  046%=      5-min Rain = 0
KCR1 141803Z 03014KT 11/00 A304 RMK A01 T01100000  RH  047%=      5-min Rain = 0
KCR1 141804Z 03014KT 11/00 A304 RMK A01 T01100000  RH  047%=      5-min Rain = 0
KCR1 141805Z 03011KT 11/00 A304 RMK A01 T01100000  RH  047%=      5-min Rain = 0
KCR1 141806Z 04007KT 11/M00 A304 RMK A01 T01111001  RH  046%=      5-min Rain = 0
KCR1 141807Z 04008KT 11/M00 A304 RMK A01 T01091002  RH  046%=      5-min Rain = 0
KCR1 141808Z 06010KT 11/00 A304 RMK A01 T01090000  RH  047%=      5-min Rain = 0
KCR1 141809Z 05008KT 11/00 A304 RMK A01 T011000-0  RH  046%=      5-min Rain = 0
KCR1 141810Z 05011KT 11/00 A304 RMK A01 T01120002  RH  047%=      5-min Rain = 0
KCR1 141811Z 06008KT 12/00 A304 RMK A01 T01150004  RH  046%=      5-min Rain = 0
KCR1 141812Z 05013KT 12/00 A304 RMK A01 T01170003  RH  045%=      5-min Rain = 0
KCR1 141813Z 04013KT 11/00 A304 RMK A01 T011400-0  RH  045%=      5-min Rain = 0
KCR1 141814Z 04010KT 11/M00 A304 RMK A01 T01121001  RH  046%=      5-min Rain = 0
KCR1 141815Z 04008KT 11/M00 A304 RMK A01 T01121001  RH  046%=      5-min Rain = 0
KCR1 141816Z 03010KT 11/00 A304 RMK A01 T01120000  RH  046%=      5-min Rain = 0
KCR1 141817Z 06011KT 11/00 A304 RMK A01 T01130001  RH  046%=      5-min Rain = 0
KCR1 141818Z 06010KT 11/00 A304 RMK A01 T01140001  RH  046%=      5-min Rain = 0
KCR1 141819Z 07010KT 12/00 A3039 RMK A01 T01150001  RH  045%=      5-min Rain = 0
KCR1 141820Z 07010KT 12/00 A3039 RMK A01 T01150000  RH  045%=      5-min Rain = 0
KCR1 141821Z 07008KT 11/M00 A3039 RMK A01 T01141001  RH  045%=      5-min Rain = 0
KCR1 141822Z 08008KT 11/00 A3039 RMK A01 T01140001  RH  045%=      5-min Rain = 0
KCR1 141823Z 07010KT 12/00 A3039 RMK A01 T01160002  RH  045%=      5-min Rain = 0
KCR1 141824Z 04012KT 12/00 A3039 RMK A01 T01190003  RH  045%=      5-min Rain = 0
KCR1 141825Z 03013KT 12/00 A3039 RMK A01 T01210004  RH  045%=      5-min Rain = 0
KCR1 141826Z 04012KT 12/00 A3039 RMK A01 T01200000  RH  044%=      5-min Rain = 0
KCR1 141827Z 05011KT 12/M00 A3039 RMK A01 T01161001  RH  044%=      5-min Rain = 0
KCR1 141828Z 04012KT 12/00 A3039 RMK A01 T011600-0  RH  045%=      5-min Rain = 0
KCR1 141829Z 04010KT 12/00 A3039 RMK A01 T011600-0  RH  045%=      5-min Rain = 0
KCR1 141830Z 05012KT 12/00 A3039 RMK A01 T01160000  RH  045%=      5-min Rain = 0
KCR1 141831Z 05014KT 12/00 A3039 RMK A01 T01170002  RH  045%=      5-min Rain = 0
KCR1 141832Z 04011KT 12/00 A3039 RMK A01 T01180001  RH  044%=      5-min Rain = 0
KCR1 141833Z 04012KT 12/00 A3039 RMK A01 T01190001  RH  044%=      5-min Rain = 0
KCR1 141834Z 04008KT 12/00 A3039 RMK A01 T01190002  RH  044%=      5-min Rain = 0
KCR1 141835Z 04010KT 12/00 A3039 RMK A01 T01210002  RH  044%=      5-min Rain = 0
KCR1 141836Z 04014KT 12/00 A3039 RMK A01 T01210002  RH  044%=      5-min Rain = 0
KCR1 141837Z 04012KT 12/M00 A3039 RMK A01 T01211001  RH  043%=      5-min Rain = 0
KCR1 141838Z 03011KT 12/M00 A3039 RMK A01 T01181002  RH  043%=      5-min Rain = 0
KCR1 141839Z 03012KT 12/M00 A3039 RMK A01 T01171001  RH  044%=      5-min Rain = 0
KCR1 141840Z 03015KT 12/00 A3039 RMK A01 T01180001  RH  044%=      5-min Rain = 0
KCR1 141841Z 03011KT 12/00 A3039 RMK A01 T011900-0  RH  044%=      5-min Rain = 0
KCR1 141842Z 04012KT 12/00 A3039 RMK A01 T01190002  RH  044%=      5-min Rain = 0
KCR1 141843Z 03010KT 12/00 A3038 RMK A01 T01210001  RH  044%=      5-min Rain = 0
KCR1 141844Z 05011KT 12/00 A3038 RMK A01 T01200001  RH  044%=      5-min Rain = 0
KCR1 141845Z 06010KT 12/00 A3038 RMK A01 T01210001  RH  044%=      5-min Rain = 0
KCR1 141846Z 05009KT 12/00 A3038 RMK A01 T012100-0  RH  043%=      5-min Rain = 0
KCR1 141847Z 04008KT 12/00 A3038 RMK A01 T01220003  RH  044%=      5-min Rain = 0
KCR1 141848Z 04012KT 12/00 A3038 RMK A01 T01240003  RH  043%=      5-min Rain = 0
KCR1 141849Z 03012KT 13/00 A3038 RMK A01 T01250001  RH  043%=      5-min Rain = 0
KCR1 141850Z 02013KT 12/00 A3038 RMK A01 T01240002  RH  043%=      5-min Rain = 0
KCR1 141851Z 02013KT 13/00 A3038 RMK A01 T01250001  RH  043%=      5-min Rain = 0
KCR1 141852Z 02014KT 12/00 A3038 RMK A01 T01240000  RH  043%=      5-min Rain = 0
KCR1 141853Z 03016KT 12/00 A3038 RMK A01 T012300-0  RH  043%=      5-min Rain = 0
KCR1 141854Z 03015KT 12/00 A3038 RMK A01 T012200-0  RH  043%=      5-min Rain = 0
KCR1 141855Z 03013KT 12/00 A3038 RMK A01 T012200-0  RH  043%=      5-min Rain = 0
KCR1 141856Z 03013KT 12/00 A3038 RMK A01 T01220000  RH  043%=      5-min Rain = 0
KCR1 141857Z 03016KT 13/00 A3038 RMK A01 T01250003  RH  043%=      5-min Rain = 0
KCR1 141858Z 03014KT 13/00 A3038 RMK A01 T012500-0  RH  042%=      5-min Rain = 0
KCR1 141859Z 04014KT 13/00 A3038 RMK A01 T01250002  RH  043%=      5-min Rain = 0
KCR1 141900Z 04012KT 13/00 A3038 RMK A01 T01270001  RH  042%=      5-min Rain = 0
KCR1 141901Z 02013KT 13/00 A3038 RMK A01 T01260001  RH  042%=      5-min Rain = 0
KCR1 141902Z 05013KT 13/00 A3038 RMK A01 T01270003  RH  043%=      5-min Rain = 0
KCR1 141903Z 05014KT 13/00 A3038 RMK A01 T01300003  RH  042%=      5-min Rain = 0
KCR1 141904Z 05012KT 13/00 A3038 RMK A01 T01290002  RH  042%=      5-min Rain = 0
KCR1 141905Z 05012KT 13/00 A3038 RMK A01 T01290002  RH  042%=      5-min Rain = 0
KCR1 141906Z 06013KT 13/00 A3038 RMK A01 T012800-0  RH  041%=      5-min Rain = 0
KCR1 141907Z 06012KT 13/00 A3038 RMK A01 T01260000  RH  042%=      5-min Rain = 0
KCR1 141908Z 05014KT 13/00 A3038 RMK A01 T01270002  RH  042%=      5-min Rain = 0
KCR1 141909Z 04016KT 13/00 A3037 RMK A01 T01280001  RH  042%=      5-min Rain = 0
KCR1 141910Z 04017KT 13/00 A3037 RMK A01 T01280000  RH  041%=      5-min Rain = 0
KCR1 141911Z 04017KT 13/00 A3037 RMK A01 T01280000  RH  041%=      5-min Rain = 0
KCR1 141912Z 04015KT 13/M00 A3037 RMK A01 T01271001  RH  041%=      5-min Rain = 0
KCR1 141913Z 03014KT 13/M00 A3038 RMK A01 T01251001  RH  042%=      5-min Rain = 0
KCR1 141914Z 03015KT 13/M00 A3038 RMK A01 T01251001  RH  042%=      5-min Rain = 0
KCR1 141915Z 04014KT 12/M00 A3037 RMK A01 T01241002  RH  042%=      5-min Rain = 0
KCR1 141916Z 03014KT 12/M00 A3038 RMK A01 T01231001  RH  042%=      5-min Rain = 0
KCR1 141917Z 03014KT 12/00 A3038 RMK A01 T012400-0  RH  042%=      5-min Rain = 0
KCR1 141918Z 03016KT 13/00 A3037 RMK A01 T012500-0  RH  042%=      5-min Rain = 0
KCR1 141919Z 04016KT 13/00 A3037 RMK A01 T01260000  RH  042%=      5-min Rain = 0
KCR1 141920Z 03016KT 13/M00 A3037 RMK A01 T01271001  RH  042%=      5-min Rain = 0
KCR1 141921Z 02018KT 13/M00 A3037 RMK A01 T01271001  RH  042%=      5-min Rain = 0
KCR1 141922Z 03015G20KT 13/00 A3037 RMK A01 T012700-0  RH  042%=      5-min Rain = 0
KCR1 141923Z 04011KT 13/00 A3037 RMK A01 T01290004  RH  042%=      5-min Rain = 0
KCR1 141924Z 03012KT 13/00 A3037 RMK A01 T01330004  RH  041%=      5-min Rain = 0
KCR1 141925Z 05014KT 13/00 A3037 RMK A01 T01330004  RH  041%=      5-min Rain = 0
KCR1 141926Z 05013KT 13/00 A3037 RMK A01 T01320001  RH  041%=      5-min Rain = 0
KCR1 141927Z 05015KT 13/M00 A3037 RMK A01 T01291001  RH  041%=      5-min Rain = 0
KCR1 141928Z 05015KT 13/00 A3037 RMK A01 T01270000  RH  042%=      5-min Rain = 0
KCR1 141929Z 05016KT 13/00 A3037 RMK A01 T012700-0  RH  042%=      5-min Rain = 0
KCR1 141930Z 05015KT 13/M00 A3037 RMK A01 T01261001  RH  042%=      5-min Rain = 0
KCR1 141931Z 03014KT 13/00 A3037 RMK A01 T01260001  RH  042%=      5-min Rain = 0
KCR1 141932Z 03012KT 13/00 A3037 RMK A01 T01280001  RH  042%=      5-min Rain = 0
KCR1 141933Z 04012KT 13/00 A3037 RMK A01 T01290001  RH  041%=      5-min Rain = 0
KCR1 141934Z 04011KT 13/00 A3037 RMK A01 T01280002  RH  042%=      5-min Rain = 0
KCR1 141935Z 03014KT 13/00 A3037 RMK A01 T01300002  RH  041%=      5-min Rain = 0
KCR1 141936Z 03015KT 13/M00 A3037 RMK A01 T01291001  RH  041%=      5-min Rain = 0
KCR1 141937Z 03014KT 13/00 A3037 RMK A01 T01280001  RH  042%=      5-min Rain = 0
KCR1 141938Z 04013KT 13/00 A3037 RMK A01 T01280001  RH  042%=      5-min Rain = 0
KCR1 141939Z 03012KT 13/00 A3037 RMK A01 T01280001  RH  041%=      5-min Rain = 0
KCR1 141940Z 02014KT 13/00 A3037 RMK A01 T01280002  RH  042%=      5-min Rain = 0
KCR1 141941Z 03014KT 13/00 A3037 RMK A01 T01280000  RH  041%=      5-min Rain = 0
KCR1 141942Z 03012KT 13/00 A3037 RMK A01 T012600-0  RH  042%=      5-min Rain = 0
KCR1 141943Z 03011KT 13/00 A3037 RMK A01 T01250000  RH  042%=      5-min Rain = 0
KCR1 141944Z 01013KT 13/00 A3037 RMK A01 T01260001  RH  042%=      5-min Rain = 0
KCR1 141945Z 02014KT 13/00 A3037 RMK A01 T01260001  RH  042%=      5-min Rain = 0
KCR1 141946Z 03012KT 13/00 A3037 RMK A01 T01260001  RH  042%=      5-min Rain = 0
KCR1 141947Z 03012KT 13/00 A3037 RMK A01 T01270001  RH  042%=      5-min Rain = 0
KCR1 141948Z 04012KT 13/M00 A3037 RMK A01 T01261001  RH  042%=      5-min Rain = 0
KCR1 141949Z 03012KT 13/00 A3037 RMK A01 T01260001  RH  042%=      5-min Rain = 0
KCR1 141950Z 04012KT 13/00 A3037 RMK A01 T01270002  RH  042%=      5-min Rain = 0
KCR1 141951Z 04013KT 13/00 A3037 RMK A01 T01280001  RH  042%=      5-min Rain = 0
KCR1 141952Z 04014KT 13/00 A3037 RMK A01 T01280001  RH  042%=      5-min Rain = 0
KCR1 141953Z 03012KT 13/00 A3037 RMK A01 T01270001  RH  042%=      5-min Rain = 0
KCR1 141954Z 02013KT 13/00 A3037 RMK A01 T01280001  RH  042%=      5-min Rain = 0
KCR1 141955Z 03013KT 13/00 A3037 RMK A01 T01280001  RH  042%=      5-min Rain = 0
KCR1 141956Z 03011KT 13/00 A3037 RMK A01 T01280000  RH  042%=      5-min Rain = 0
KCR1 141957Z 03013KT 13/00 A3037 RMK A01 T01270001  RH  042%=      5-min Rain = 0
KCR1 141958Z 04008KT 13/M00 A3037 RMK A01 T01271001  RH  041%=      5-min Rain = 0
KCR1 141959Z 02009KT 13/00 A3037 RMK A01 T01260000  RH  042%=      5-min Rain = 0
KCR1 142000Z 01009KT 13/00 A3037 RMK A01 T01280002  RH  042%=      5-min Rain = 0
KCR1 142001Z 01008KT 13/00 A3037 RMK A01 T01280001  RH  042%=      5-min Rain = 0
KCR1 142002Z 03010KT 13/00 A3037 RMK A01 T01300004  RH  042%=      5-min Rain = 0
KCR1 142003Z 03012KT 13/00 A3037 RMK A01 T01320004  RH  041%=      5-min Rain = 0
KCR1 142004Z 04013KT 13/00 A3037 RMK A01 T01330003  RH  041%=      5-min Rain = 0
KCR1 142005Z 06016KT 13/00 A3037 RMK A01 T01330003  RH  041%=      5-min Rain = 0
KCR1 142006Z 07014KT 13/00 A3037 RMK A01 T01330001  RH  040%=      5-min Rain = 0
KCR1 142007Z 06012KT 13/M00 A3037 RMK A01 T01301001  RH  040%=      5-min Rain = 0
KCR1 142008Z 05011KT 13/00 A3037 RMK A01 T01290001  RH  041%=      5-min Rain = 0
KCR1 142009Z 06010KT 13/00 A3037 RMK A01 T012900-0  RH  041%=      5-min Rain = 0
KCR1 142010Z 04010KT 13/00 A3036 RMK A01 T01300002  RH  041%=      5-min Rain = 0
KCR1 142011Z 05014G19KT 13/00 A3036 RMK A01 T01310001  RH  041%=      5-min Rain = 0
KCR1 142012Z 05011G17KT 13/00 A3036 RMK A01 T01300002  RH  041%=      5-min Rain = 0
KCR1 142013Z 04017KT 13/00 A3036 RMK A01 T01310002  RH  041%=      5-min Rain = 0
KCR1 142014Z 03012KT 13/00 A3036 RMK A01 T01310001  RH  041%=      5-min Rain = 0
KCR1 142015Z 04012KT 13/00 A3036 RMK A01 T01310001  RH  041%=      5-min Rain = 0
KCR1 142016Z 03012KT 13/00 A3036 RMK A01 T013000-0  RH  041%=      5-min Rain = 0
KCR1 142017Z 05012KT 13/00 A3036 RMK A01 T012800-0  RH  041%=      5-min Rain = 0
KCR1 142018Z 05012KT 13/00 A3036 RMK A01 T01290001  RH  042%=      5-min Rain = 0
KCR1 142019Z 05009KT 13/00 A3036 RMK A01 T01310002  RH  041%=      5-min Rain = 0
KCR1 142020Z 04009KT 13/00 A3036 RMK A01 T01320001  RH  041%=      5-min Rain = 0
KCR1 142021Z 04011KT 13/M00 A3036 RMK A01 T01301001  RH  040%=      5-min Rain = 0
KCR1 142022Z 02012KT 13/00 A3036 RMK A01 T01290001  RH  041%=      5-min Rain = 0
KCR1 142023Z 02013KT 13/00 A3036 RMK A01 T01310002  RH  041%=      5-min Rain = 0
KCR1 142024Z 02011KT 13/00 A3036 RMK A01 T01320000  RH  040%=      5-min Rain = 0
KCR1 142025Z 01012KT 13/00 A3036 RMK A01 T01310000  RH  041%=      5-min Rain = 0
KCR1 142026Z 01015KT 13/00 A3036 RMK A01 T01310001  RH  041%=      5-min Rain = 0
KCR1 142027Z 04015KT 13/00 A3036 RMK A01 T01320002  RH  041%=      5-min Rain = 0
KCR1 142028Z 04013KT 13/00 A3036 RMK A01 T01330002  RH  041%=      5-min Rain = 0
KCR1 142029Z 04011KT 13/00 A3036 RMK A01 T01330001  RH  040%=      5-min Rain = 0
KCR1 142030Z 04009KT 13/00 A3036 RMK A01 T01320000  RH  040%=      5-min Rain = 0
KCR1 142031Z 04010KT 13/00 A3036 RMK A01 T01320002  RH  041%=      5-min Rain = 0
KCR1 142032Z 02008KT 13/00 A3036 RMK A01 T01310000  RH  041%=      5-min Rain = 0
KCR1 142033Z 05012KT 13/00 A3036 RMK A01 T01320004  RH  041%=      5-min Rain = 0
KCR1 142034Z 04015KT 14/00 A3036 RMK A01 T01350003  RH  040%=      5-min Rain = 0
KCR1 142035Z 04012KT 13/00 A3036 RMK A01 T01340001  RH  040%=      5-min Rain = 0
KCR1 142036Z 04010KT 13/00 A3036 RMK A01 T01320001  RH  040%=      5-min Rain = 0
KCR1 142037Z 04009KT 13/00 A3036 RMK A01 T01320001  RH  041%=      5-min Rain = 0
KCR1 142038Z 04008KT 13/00 A3036 RMK A01 T01310000  RH  041%=      5-min Rain = 0
KCR1 142039Z 04011KT 13/00 A3036 RMK A01 T01300000  RH  041%=      5-min Rain = 0
KCR1 142040Z 04013KT 13/00 A3036 RMK A01 T01310003  RH  041%=      5-min Rain = 0
KCR1 142041Z 03013KT 13/00 A3036 RMK A01 T01330003  RH  041%=      5-min Rain = 0
KCR1 142042Z 04010KT 13/00 A3036 RMK A01 T01320001  RH  040%=      5-min Rain = 0
KCR1 142043Z 03011KT 13/00 A3036 RMK A01 T01320002  RH  041%=      5-min Rain = 0
KCR1 142044Z 02013KT 13/00 A3036 RMK A01 T01330002  RH  041%=      5-min Rain = 0
KCR1 142045Z 02010KT 13/00 A3036 RMK A01 T01330001  RH  040%=      5-min Rain = 0
KCR1 142046Z 02010KT 13/00 A3035 RMK A01 T01320002  RH  041%=      5-min Rain = 0
KCR1 142047Z 00011KT 13/00 A3035 RMK A01 T01340003  RH  041%=      5-min Rain = 0
KCR1 142048Z 02011KT 13/00 A3035 RMK A01 T01330001  RH  040%=      5-min Rain = 0
KCR1 142049Z 05010KT 13/00 A3035 RMK A01 T01320002  RH  041%=      5-min Rain = 0
KCR1 142050Z 05008KT 13/00 A3035 RMK A01 T01320001  RH  041%=      5-min Rain = 0
KCR1 142051Z 04012KT 13/00 A3035 RMK A01 T01330003  RH  041%=      5-min Rain = 0
KCR1 142052Z 04009KT 13/00 A3035 RMK A01 T01340002  RH  040%=      5-min Rain = 0
KCR1 142053Z 02007KT 13/00 A3036 RMK A01 T01330002  RH  040%=      5-min Rain = 0
KCR1 142054Z 02007KT 13/00 A3036 RMK A01 T01330003  RH  041%=      5-min Rain = 0
KCR1 142055Z 03011KT 13/00 A3036 RMK A01 T01340002  RH  041%=      5-min Rain = 0
KCR1 142056Z 04011KT 13/00 A3036 RMK A01 T01340002  RH  040%=      5-min Rain = 0
KCR1 142057Z 03010KT 13/00 A3036 RMK A01 T01330000  RH  040%=      5-min Rain = 0
KCR1 142058Z 03011KT 13/00 A3036 RMK A01 T01320002  RH  041%=      5-min Rain = 0
KCR1 142059Z 03009KT 13/00 A3036 RMK A01 T01330002  RH  041%=      5-min Rain = 0
KCR1 142100Z 03009KT 13/00 A3036 RMK A01 T01330002  RH  041%=      5-min Rain = 0
KCR1 142101Z 03008KT 13/00 A3036 RMK A01 T01340001  RH  040%=      5-min Rain = 0
KCR1 142102Z 05010G18KT 13/00 A3036 RMK A01 T01340002  RH  041%=      5-min Rain = 0
KCR1 142103Z 04012KT 14/00 A3036 RMK A01 T01350003  RH  041%=      5-min Rain = 0
KCR1 142104Z 05012KT 14/00 A3036 RMK A01 T01360004  RH  041%=      5-min Rain = 0
KCR1 142105Z 04014KT 14/00 A3036 RMK A01 T01360004  RH  040%=      5-min Rain = 0
KCR1 142106Z 05015KT 14/01 A3036 RMK A01 T01370006  RH  041%=      5-min Rain = 0
KCR1 142107Z 04013KT 14/00 A3036 RMK A01 T01380004  RH  040%=      5-min Rain = 0
KCR1 142108Z 05011KT 14/00 A3036 RMK A01 T01360003  RH  040%=      5-min Rain = 0
KCR1 142109Z 03010KT 14/00 A3036 RMK A01 T01350002  RH  040%=      5-min Rain = 0
KCR1 142110Z 02010KT 13/00 A3036 RMK A01 T01340003  RH  040%=      5-min Rain = 0
KCR1 142111Z 03011KT 13/00 A3036 RMK A01 T01340002  RH  040%=      5-min Rain = 0
KCR1 142112Z 03009KT 13/00 A3036 RMK A01 T01330001  RH  040%=      5-min Rain = 0
KCR1 142113Z 03012KT 13/00 A3036 RMK A01 T01320002  RH  041%=      5-min Rain = 0
KCR1 142114Z 02011KT 13/00 A3036 RMK A01 T01330002  RH  041%=      5-min Rain = 0
KCR1 142115Z 02014G19KT 13/00 A3036 RMK A01 T01340002  RH  040%=      5-min Rain = 0
KCR1 142116Z 02015KT 13/00 A3036 RMK A01 T01340002  RH  040%=      5-min Rain = 0
KCR1 142117Z 03016KT 14/00 A3036 RMK A01 T01350002  RH  040%=      5-min Rain = 0
KCR1 142118Z 03014KT 14/00 A3036 RMK A01 T013500-0  RH  039%=      5-min Rain = 0
KCR1 142119Z 03013KT 13/00 A3036 RMK A01 T01340002  RH  040%=      5-min Rain = 0
KCR1 142120Z 02016KT 14/00 A3036 RMK A01 T01360003  RH  040%=      5-min Rain = 0
KCR1 142121Z 02015KT 14/00 A3036 RMK A01 T01360001  RH  040%=      5-min Rain = 0
KCR1 142122Z 02015KT 14/00 A3036 RMK A01 T01360001  RH  040%=      5-min Rain = 0
KCR1 142123Z 02016KT 14/00 A3036 RMK A01 T01350001  RH  040%=      5-min Rain = 0
KCR1 142124Z 02013KT 14/00 A3036 RMK A01 T01350001  RH  040%=      5-min Rain = 0
KCR1 142125Z 02012KT 13/00 A3036 RMK A01 T01340003  RH  040%=      5-min Rain = 0
KCR1 142126Z 03014KT 14/00 A3036 RMK A01 T01350002  RH  040%=      5-min Rain = 0
KCR1 142127Z 02014KT 14/00 A3036 RMK A01 T01350001  RH  040%=      5-min Rain = 0
KCR1 142128Z 02012KT 13/00 A3036 RMK A01 T01330000  RH  040%=      5-min Rain = 0
KCR1 142129Z 02012KT 13/00 A3036 RMK A01 T01330002  RH  041%=      5-min Rain = 0
KCR1 142130Z 02013KT 14/00 A3036 RMK A01 T01350002  RH  040%=      5-min Rain = 0
KCR1 142131Z 03015KT 14/00 A3036 RMK A01 T01350002  RH  040%=      5-min Rain = 0
KCR1 142132Z 02014KT 13/00 A3036 RMK A01 T01340001  RH  040%=      5-min Rain = 0
KCR1 142133Z 02013KT 13/00 A3036 RMK A01 T01330001  RH  040%=      5-min Rain = 0
KCR1 142134Z 02012KT 13/00 A3036 RMK A01 T01320001  RH  041%=      5-min Rain = 0
KCR1 142135Z 03010KT 13/00 A3036 RMK A01 T01320001  RH  041%=      5-min Rain = 0
KCR1 142136Z 02011KT 13/00 A3036 RMK A01 T01320002  RH  041%=      5-min Rain = 0
KCR1 142137Z 02012KT 13/00 A3036 RMK A01 T01320002  RH  041%=      5-min Rain = 0
KCR1 142138Z 02014KT 13/00 A3036 RMK A01 T01330001  RH  040%=      5-min Rain = 0
KCR1 142139Z 03014KT 13/00 A3036 RMK A01 T01330002  RH  041%=      5-min Rain = 0
KCR1 142140Z 03013KT 13/00 A3036 RMK A01 T01330002  RH  040%=      5-min Rain = 0
KCR1 142141Z 04013KT 13/00 A3036 RMK A01 T01320002  RH  041%=      5-min Rain = 0
KCR1 142142Z 05014KT 13/00 A3036 RMK A01 T01330003  RH  041%=      5-min Rain = 0
KCR1 142143Z 04013KT 13/00 A3036 RMK A01 T01340002  RH  041%=      5-min Rain = 0
KCR1 142144Z 04012KT 13/00 A3036 RMK A01 T01330002  RH  040%=      5-min Rain = 0
KCR1 142145Z 04010KT 13/00 A3036 RMK A01 T01320001  RH  040%=      5-min Rain = 0
KCR1 142146Z 02011KT 13/00 A3036 RMK A01 T01320002  RH  041%=      5-min Rain = 0
KCR1 142147Z 02011KT 13/00 A3036 RMK A01 T01330002  RH  040%=      5-min Rain = 0
KCR1 142148Z 01010KT 13/00 A3036 RMK A01 T01330000  RH  040%=      5-min Rain = 0
KCR1 142149Z 02009KT 13/00 A3036 RMK A01 T01320001  RH  040%=      5-min Rain = 0
KCR1 142150Z 01013KT 13/00 A3036 RMK A01 T01330002  RH  041%=      5-min Rain = 0
KCR1 142151Z 05013KT 13/00 A3036 RMK A01 T01330002  RH  041%=      5-min Rain = 0
KCR1 142152Z 05008KT 13/00 A3036 RMK A01 T01330002  RH  041%=      5-min Rain = 0
KCR1 142153Z 04010KT 13/00 A3036 RMK A01 T01320002  RH  041%=      5-min Rain = 0
KCR1 142154Z 04013KT 13/00 A3036 RMK A01 T01320002  RH  041%=      5-min Rain = 0
KCR1 142155Z 02014KT 13/00 A3036 RMK A01 T01330002  RH  041%=      5-min Rain = 0
KCR1 142156Z 02014KT 13/00 A3036 RMK A01 T01330002  RH  041%=      5-min Rain = 0
KCR1 142157Z 03011KT 13/00 A3036 RMK A01 T01320001  RH  041%=      5-min Rain = 0
KCR1 142158Z 02012KT 13/00 A3036 RMK A01 T01310001  RH  041%=      5-min Rain = 0
KCR1 142159Z 02012KT 13/00 A3036 RMK A01 T01310001  RH  041%=      5-min Rain = 0
KCR1 142200Z 02010KT 13/00 A3036 RMK A01 T01310001  RH  041%=      5-min Rain = 0
KCR1 142201Z 03010KT 13/00 A3036 RMK A01 T01310001  RH  041%=      5-min Rain = 0
KCR1 142202Z 04010KT 13/00 A3036 RMK A01 T01310001  RH  041%=      5-min Rain = 0
KCR1 142203Z 05012KT 13/00 A3036 RMK A01 T01310002  RH  041%=      5-min Rain = 0
KCR1 142204Z 06012KT 13/00 A3036 RMK A01 T01310002  RH  041%=      5-min Rain = 0
KCR1 142205Z 05010KT 13/00 A3036 RMK A01 T01320002  RH  041%=      5-min Rain = 0
KCR1 142206Z 05012KT 13/00 A3036 RMK A01 T01320004  RH  041%=      5-min Rain = 0
KCR1 142207Z 06011KT 13/00 A3036 RMK A01 T01330002  RH  041%=      5-min Rain = 0
KCR1 142208Z 05009KT 13/00 A3036 RMK A01 T01310001  RH  041%=      5-min Rain = 0
KCR1 142209Z 05010KT 13/00 A3036 RMK A01 T01310002  RH  041%=      5-min Rain = 0
KCR1 142210Z 05009KT 13/00 A3036 RMK A01 T01300002  RH  041%=      5-min Rain = 0
KCR1 142211Z 05009KT 13/00 A3036 RMK A01 T01300002  RH  041%=      5-min Rain = 0
KCR1 142212Z 02012KT 13/00 A3036 RMK A01 T01310003  RH  041%=      5-min Rain = 0
KCR1 142213Z 03013KT 13/00 A3036 RMK A01 T01320002  RH  041%=      5-min Rain = 0
KCR1 142214Z 03013KT 13/00 A3036 RMK A01 T01320001  RH  041%=      5-min Rain = 0
KCR1 142215Z 03012KT 13/00 A3036 RMK A01 T01310001  RH  041%=      5-min Rain = 0
KCR1 142216Z 03011KT 13/00 A3036 RMK A01 T01300001  RH  041%=      5-min Rain = 0
KCR1 142217Z 04012KT 13/00 A3036 RMK A01 T01300002  RH  041%=      5-min Rain = 0
KCR1 142218Z 04012KT 13/00 A3036 RMK A01 T01300001  RH  041%=      5-min Rain = 0
KCR1 142219Z 04011KT 13/00 A3036 RMK A01 T01300002  RH  042%=      5-min Rain = 0
KCR1 142220Z 03010KT 13/00 A3035 RMK A01 T01300002  RH  041%=      5-min Rain = 0
KCR1 142221Z 02010KT 13/00 A3036 RMK A01 T01290001  RH  041%=      5-min Rain = 0
KCR1 142222Z 03009KT 13/00 A3036 RMK A01 T01280001  RH  041%=      5-min Rain = 0
KCR1 142223Z 02009KT 13/00 A3036 RMK A01 T01280001  RH  042%=      5-min Rain = 0
KCR1 142224Z 03010KT 13/00 A3036 RMK A01 T01280002  RH  042%=      5-min Rain = 0
KCR1 142225Z 05010KT 13/00 A3036 RMK A01 T01290003  RH  042%=      5-min Rain = 0
KCR1 142226Z 05009KT 13/00 A3036 RMK A01 T01290003  RH  042%=      5-min Rain = 0
KCR1 142227Z 04010KT 13/00 A3036 RMK A01 T01300003  RH  042%=      5-min Rain = 0
KCR1 142228Z 04009KT 13/00 A3036 RMK A01 T01300003  RH  042%=      5-min Rain = 0
KCR1 142229Z 05011KT 13/00 A3036 RMK A01 T01300003  RH  042%=      5-min Rain = 0
KCR1 142230Z 05011KT 13/00 A3036 RMK A01 T01300002  RH  041%=      5-min Rain = 0
KCR1 142231Z 04011KT 13/00 A3036 RMK A01 T01290002  RH  042%=      5-min Rain = 0
KCR1 142232Z 03010KT 13/00 A3036 RMK A01 T01280002  RH  042%=      5-min Rain = 0
KCR1 142233Z 04011KT 13/00 A3036 RMK A01 T01280002  RH  042%=      5-min Rain = 0
KCR1 142234Z 04011KT 13/00 A3036 RMK A01 T01280001  RH  042%=      5-min Rain = 0
KCR1 142235Z 05010KT 13/00 A3036 RMK A01 T01280003  RH  042%=      5-min Rain = 0
KCR1 142236Z 05011KT 13/00 A3036 RMK A01 T01280003  RH  042%=      5-min Rain = 0
KCR1 142237Z 04012KT 13/00 A3036 RMK A01 T01280002  RH  042%=      5-min Rain = 0
KCR1 142238Z 04011KT 13/00 A3036 RMK A01 T01280002  RH  042%=      5-min Rain = 0
KCR1 142239Z 04010KT 13/00 A3036 RMK A01 T01270002  RH  042%=      5-min Rain = 0
KCR1 142240Z 03010KT 13/00 A3036 RMK A01 T01270003  RH  042%=      5-min Rain = 0
KCR1 142241Z 03010KT 13/00 A3036 RMK A01 T01280004  RH  043%=      5-min Rain = 0
KCR1 142242Z 02010KT 13/00 A3036 RMK A01 T01280003  RH  042%=      5-min Rain = 0
KCR1 142243Z 03011KT 13/00 A3036 RMK A01 T01270002  RH  042%=      5-min Rain = 0
KCR1 142244Z 03010KT 13/00 A3036 RMK A01 T01260001  RH  042%=      5-min Rain = 0
KCR1 142245Z 03009KT 13/00 A3036 RMK A01 T01260001  RH  042%=      5-min Rain = 0
KCR1 142246Z 03008KT 13/00 A3036 RMK A01 T01250001  RH  042%=      5-min Rain = 0
KCR1 142247Z 04008KT 13/00 A3036 RMK A01 T01250002  RH  043%=      5-min Rain = 0
KCR1 142248Z 04007KT 13/00 A3036 RMK A01 T01250003  RH  043%=      5-min Rain = 0
KCR1 142249Z 04008KT 13/00 A3036 RMK A01 T01250004  RH  043%=      5-min Rain = 0
KCR1 142250Z 04009KT 13/00 A3036 RMK A01 T01260004  RH  043%=      5-min Rain = 0
KCR1 142251Z 05010KT 13/00 A3036 RMK A01 T01260003  RH  043%=      5-min Rain = 0
KCR1 142252Z 04011KT 13/00 A3036 RMK A01 T01250003  RH  043%=      5-min Rain = 0
KCR1 142253Z 04011KT 13/00 A3036 RMK A01 T01250002  RH  043%=      5-min Rain = 0
KCR1 142254Z 03010KT 13/00 A3036 RMK A01 T01250002  RH  043%=      5-min Rain = 0
KCR1 142255Z 03009KT 13/00 A3036 RMK A01 T01250002  RH  043%=      5-min Rain = 0
KCR1 142256Z 03010KT 12/00 A3036 RMK A01 T01240002  RH  043%=      5-min Rain = 0
KCR1 142257Z 03009KT 12/00 A3036 RMK A01 T01240002  RH  043%=      5-min Rain = 0
KCR1 142258Z 03010KT 12/00 A3036 RMK A01 T01240003  RH  043%=      5-min Rain = 0
KCR1 142259Z 03011KT 12/00 A3036 RMK A01 T01230002  RH  043%=      5-min Rain = 0
KCR1 142300Z 03009KT 12/00 A3036 RMK A01 T01230002  RH  043%=      5-min Rain = 0
KCR1 142301Z 03012KT 12/00 A3036 RMK A01 T01230002  RH  043%=      5-min Rain = 0
KCR1 142302Z 04011KT 12/00 A3036 RMK A01 T01230002  RH  043%=      5-min Rain = 0
KCR1 142303Z 04009KT 12/00 A3036 RMK A01 T01230002  RH  043%=      5-min Rain = 0
KCR1 142304Z 04009KT 12/00 A3036 RMK A01 T01220002  RH  044%=      5-min Rain = 0
KCR1 142305Z 03010KT 12/00 A3036 RMK A01 T01220002  RH  044%=      5-min Rain = 0
KCR1 142306Z 04010KT 12/00 A3036 RMK A01 T01220002  RH  044%=      5-min Rain = 0
KCR1 142307Z 04010KT 12/00 A3036 RMK A01 T01210002  RH  044%=      5-min Rain = 0
KCR1 142308Z 03010KT 12/00 A3036 RMK A01 T01210002  RH  044%=      5-min Rain = 0
KCR1 142309Z 04009KT 12/00 A3036 RMK A01 T01200002  RH  044%=      5-min Rain = 0
KCR1 142310Z 03009KT 12/00 A3036 RMK A01 T01200002  RH  044%=      5-min Rain = 0
KCR1 142311Z 03009KT 12/00 A3036 RMK A01 T01190002  RH  044%=      5-min Rain = 0
KCR1 142312Z 03008KT 12/00 A3036 RMK A01 T01190002  RH  045%=      5-min Rain = 0
KCR1 142313Z 03008KT 12/00 A3036 RMK A01 T01190002  RH  045%=      5-min Rain = 0
KCR1 142314Z 03008KT 12/00 A3036 RMK A01 T01180002  RH  045%=      5-min Rain = 0
KCR1 142315Z 03007KT 12/00 A3036 RMK A01 T01170003  RH  045%=      5-min Rain = 0
KCR1 142316Z 03007KT 12/00 A3036 RMK A01 T01160003  RH  046%=      5-min Rain = 0
KCR1 142317Z 03007KT 12/00 A3037 RMK A01 T01160003  RH  046%=      5-min Rain = 0
KCR1 142318Z 03006KT 12/00 A3037 RMK A01 T01150003  RH  046%=      5-min Rain = 0
KCR1 142319Z 03006KT 12/00 A3037 RMK A01 T01150003  RH  046%=      5-min Rain = 0
KCR1 142320Z 03006KT 11/00 A3037 RMK A01 T01140003  RH  046%=      5-min Rain = 0
KCR1 142321Z 03006KT 11/00 A3037 RMK A01 T01140003  RH  047%=      5-min Rain = 0
KCR1 142322Z 03006KT 11/00 A3037 RMK A01 T01130003  RH  047%=      5-min Rain = 0
KCR1 142323Z 03005KT 11/00 A3037 RMK A01 T01120003  RH  047%=      5-min Rain = 0
KCR1 142324Z 04006KT 11/00 A3037 RMK A01 T01120003  RH  047%=      5-min Rain = 0
KCR1 142325Z 04006KT 11/00 A3037 RMK A01 T01120003  RH  047%=      5-min Rain = 0
KCR1 142326Z 04006KT 11/00 A3037 RMK A01 T01110003  RH  047%=      5-min Rain = 0
KCR1 142327Z 04006KT 11/00 A3037 RMK A01 T01110003  RH  047%=      5-min Rain = 0
KCR1 142328Z 04006KT 11/00 A3037 RMK A01 T01100004  RH  048%=      5-min Rain = 0
KCR1 142329Z 04006KT 11/00 A3037 RMK A01 T01090003  RH  048%=      5-min Rain = 0
KCR1 142330Z 04006KT 11/00 A3037 RMK A01 T01080003  RH  048%=      5-min Rain = 0
KCR1 142331Z 04006KT 11/00 A3037 RMK A01 T01080004  RH  048%=      5-min Rain = 0
KCR1 142332Z 04006KT 11/00 A3037 RMK A01 T01070003  RH  049%=      5-min Rain = 0
KCR1 142333Z 04006KT 11/00 A3037 RMK A01 T01060003  RH  049%=      5-min Rain = 0
KCR1 142334Z 03006KT 11/00 A3037 RMK A01 T01050003  RH  049%=      5-min Rain = 0
KCR1 142335Z 03006KT 10/00 A3037 RMK A01 T01040003  RH  050%=      5-min Rain = 0
KCR1 142336Z 03005KT 10/00 A3037 RMK A01 T01030003  RH  050%=      5-min Rain = 0
KCR1 142337Z 04005KT 10/00 A3037 RMK A01 T01030003  RH  050%=      5-min Rain = 0
KCR1 142338Z 04005KT 10/00 A3037 RMK A01 T01020003  RH  050%=      5-min Rain = 0
KCR1 142339Z 03005KT 10/00 A3037 RMK A01 T01020003  RH  050%=      5-min Rain = 0
KCR1 142340Z 04005KT 10/00 A3038 RMK A01 T01010003  RH  050%=      5-min Rain = 0
KCR1 142341Z 04005KT 10/00 A3038 RMK A01 T01010003  RH  051%=      5-min Rain = 0
KCR1 142342Z 04004KT 10/00 A3038 RMK A01 T01000003  RH  051%=      5-min Rain = 0
KCR1 142343Z 04005KT 10/00 A3038 RMK A01 T00990003  RH  051%=      5-min Rain = 0
KCR1 142344Z 04004KT 10/00 A3038 RMK A01 T00980002  RH  051%=      5-min Rain = 0
KCR1 142345Z 04004KT 10/00 A3038 RMK A01 T00980002  RH  051%=      5-min Rain = 0
KCR1 142346Z 04004KT 10/00 A3038 RMK A01 T00970002  RH  052%=      5-min Rain = 0
KCR1 142347Z 04003KT 10/00 A3038 RMK A01 T00960003  RH  052%=      5-min Rain = 0
KCR1 142348Z 04004KT 10/00 A3038 RMK A01 T00950003  RH  052%=      5-min Rain = 0
KCR1 142349Z 03004KT 10/00 A3038 RMK A01 T00950003  RH  052%=      5-min Rain = 0
KCR1 142350Z 03004KT 10/00 A3038 RMK A01 T00950003  RH  053%=      5-min Rain = 0
KCR1 142351Z 03004KT 09/00 A3038 RMK A01 T00940003  RH  053%=      5-min Rain = 0
KCR1 142352Z 03003KT 10/00 A3038 RMK A01 T00950003  RH  053%=      5-min Rain = 0
KCR1 142353Z 03003KT 09/00 A3038 RMK A01 T00940003  RH  053%=      5-min Rain = 0
KCR1 142354Z 03003KT 09/00 A3038 RMK A01 T00940003  RH  053%=      5-min Rain = 0
KCR1 142355Z 04003KT 09/00 A3038 RMK A01 T00940003  RH  053%=      5-min Rain = 0
KCR1 142356Z 04003KT 09/00 A3038 RMK A01 T00930002  RH  053%=      5-min Rain = 0
KCR1 142357Z 04003KT 09/00 A3038 RMK A01 T00920002  RH  053%=      5-min Rain = 0
KCR1 142358Z 04003KT 09/00 A3038 RMK A01 T00920002  RH  053%=      5-min Rain = 0
KCR1 142359Z 03003KT 09/00 A3038 RMK A01 T00920001  RH  053%=      5-min Rain = 0
KCR1 150000Z 04003KT 09/00 A3038 RMK A01 T00910001  RH  053%=      5-min Rain = 0
KCR1 150001Z 03002KT 09/00 A3038 RMK A01 T00910001  RH  053%=      5-min Rain = 0
KCR1 150002Z 03002KT 09/00 A3038 RMK A01 T00910002  RH  054%=      5-min Rain = 0
KCR1 150003Z 03002KT 09/00 A3038 RMK A01 T00900001  RH  054%=      5-min Rain = 0
KCR1 150004Z 03002KT 09/00 A3038 RMK A01 T00900001  RH  054%=      5-min Rain = 0
KCR1 150005Z 03002KT 09/00 A3038 RMK A01 T00900001  RH  054%=      5-min Rain = 0
KCR1 150006Z 03002KT 09/00 A3038 RMK A01 T00900001  RH  053%=      5-min Rain = 0
KCR1 150007Z 04002KT 09/00 A3038 RMK A01 T00900001  RH  053%=      5-min Rain = 0
KCR1 150008Z 03002KT 09/00 A3038 RMK A01 T00900001  RH  054%=      5-min Rain = 0
KCR1 150009Z 03002KT 09/00 A3038 RMK A01 T00890001  RH  054%=      5-min Rain = 0
KCR1 150010Z 04002KT 09/00 A3038 RMK A01 T00900001  RH  054%=      5-min Rain = 0
KCR1 150011Z 04003KT 09/00 A3038 RMK A01 T00890001  RH  054%=      5-min Rain = 0
KCR1 150012Z 04003KT 09/00 A3038 RMK A01 T00900001  RH  054%=      5-min Rain = 0
KCR1 150013Z 04003KT 09/00 A3038 RMK A01 T00900001  RH  054%=      5-min Rain = 0
KCR1 150014Z 05003KT 09/00 A3038 RMK A01 T00900000  RH  054%=      5-min Rain = 0
KCR1 150015Z 05003KT 09/00 A3038 RMK A01 T00900000  RH  053%=      5-min Rain = 0
KCR1 150016Z 05003KT 09/00 A3038 RMK A01 T008900-0  RH  053%=      5-min Rain = 0
KCR1 150017Z 05003KT 09/00 A3038 RMK A01 T008900-0  RH  054%=      5-min Rain = 0
KCR1 150018Z 05003KT 09/00 A3038 RMK A01 T008800-0  RH  054%=      5-min Rain = 0
KCR1 150019Z 05003KT 09/00 A3038 RMK A01 T008700-0  RH  054%=      5-min Rain = 0
KCR1 150020Z 05003KT 09/00 A3038 RMK A01 T008700-0  RH  054%=      5-min Rain = 0
KCR1 150021Z 04002KT 09/00 A3038 RMK A01 T00850000  RH  055%=      5-min Rain = 0
KCR1 150022Z 04002KT 09/00 A3038 RMK A01 T00850000  RH  055%=      5-min Rain = 0
KCR1 150023Z 04002KT 08/00 A3038 RMK A01 T008400-0  RH  055%=      5-min Rain = 0
KCR1 150024Z 04002KT 08/00 A3038 RMK A01 T008400-0  RH  055%=      5-min Rain = 0
KCR1 150025Z 04002KT 08/00 A3038 RMK A01 T00830000  RH  056%=      5-min Rain = 0
KCR1 150026Z 04002KT 08/00 A3038 RMK A01 T00830000  RH  056%=      5-min Rain = 0
KCR1 150027Z 04002KT 08/00 A3038 RMK A01 T00830000  RH  056%=      5-min Rain = 0
KCR1 150028Z 04002KT 08/00 A3038 RMK A01 T00820000  RH  056%=      5-min Rain = 0
KCR1 150029Z 04001KT 08/00 A3038 RMK A01 T00830000  RH  056%=      5-min Rain = 0
KCR1 150030Z 03001KT 08/00 A3038 RMK A01 T00830001  RH  056%=      5-min Rain = 0
KCR1 150031Z 03001KT 08/00 A3038 RMK A01 T00830001  RH  056%=      5-min Rain = 0
KCR1 150032Z 04001KT 08/00 A3038 RMK A01 T00830003  RH  057%=      5-min Rain = 0
KCR1 150033Z 03001KT 08/00 A3038 RMK A01 T00830003  RH  057%=      5-min Rain = 0
KCR1 150034Z 03001KT 08/00 A3038 RMK A01 T00830002  RH  056%=      5-min Rain = 0
KCR1 150035Z 03001KT 08/00 A3038 RMK A01 T00840001  RH  056%=      5-min Rain = 0
KCR1 150036Z 04001KT 09/00 A3038 RMK A01 T00850002  RH  056%=      5-min Rain = 0
KCR1 150037Z 04001KT 09/00 A3038 RMK A01 T00860002  RH  056%=      5-min Rain = 0
KCR1 150038Z 03001KT 09/00 A3039 RMK A01 T00860002  RH  055%=      5-min Rain = 0
KCR1 150039Z 04002KT 09/00 A3039 RMK A01 T00860001  RH  055%=      5-min Rain = 0
KCR1 150040Z 04002KT 09/00 A3039 RMK A01 T00860002  RH  055%=      5-min Rain = 0
KCR1 150041Z 05002KT 09/00 A3039 RMK A01 T00860001  RH  055%=      5-min Rain = 0
KCR1 150042Z 04002KT 09/00 A3039 RMK A01 T00850002  RH  056%=      5-min Rain = 0
KCR1 150043Z 04002KT 09/00 A3039 RMK A01 T00850002  RH  056%=      5-min Rain = 0
KCR1 150044Z 04002KT 08/00 A3039 RMK A01 T00840002  RH  056%=      5-min Rain = 0
KCR1 150045Z 04002KT 08/00 A3039 RMK A01 T00840002  RH  056%=      5-min Rain = 0
KCR1 150046Z 04002KT 08/00 A3039 RMK A01 T00840002  RH  057%=      5-min Rain = 0
KCR1 150047Z 03002KT 08/00 A3039 RMK A01 T00830001  RH  056%=      5-min Rain = 0
KCR1 150048Z 03002KT 08/00 A3039 RMK A01 T00830002  RH  057%=      5-min Rain = 0
KCR1 150049Z 03002KT 08/00 A3039 RMK A01 T00820002  RH  057%=      5-min Rain = 0
KCR1 150050Z 03002KT 08/00 A3039 RMK A01 T00810002  RH  057%=      5-min Rain = 0
KCR1 150051Z 03002KT 08/00 A3039 RMK A01 T00820002  RH  057%=      5-min Rain = 0
KCR1 150052Z 03001KT 08/00 A3039 RMK A01 T00820002  RH  057%=      5-min Rain = 0
KCR1 150053Z 03001KT 08/00 A3039 RMK A01 T00830001  RH  057%=      5-min Rain = 0
KCR1 150054Z 04002KT 08/00 A3039 RMK A01 T00830001  RH  056%=      5-min Rain = 0
KCR1 150055Z 04002KT 08/00 A3039 RMK A01 T00830002  RH  057%=      5-min Rain = 0
KCR1 150056Z 04002KT 08/00 A3039 RMK A01 T00830001  RH  056%=      5-min Rain = 0
KCR1 150057Z 05002KT 08/00 A304 RMK A01 T00840001  RH  056%=      5-min Rain = 0
KCR1 150058Z 05002KT 08/00 A304 RMK A01 T00840001  RH  056%=      5-min Rain = 0
KCR1 150059Z 05002KT 09/00 A304 RMK A01 T00850001  RH  056%=      5-min Rain = 0
KCR1 150100Z 04002KT 09/00 A304 RMK A01 T00850001  RH  056%=      5-min Rain = 0
KCR1 150101Z 04002KT 09/00 A304 RMK A01 T00860001  RH  055%=      5-min Rain = 0
KCR1 150102Z 04002KT 09/00 A304 RMK A01 T00860001  RH  055%=      5-min Rain = 0
KCR1 150103Z 04002KT 09/00 A304 RMK A01 T00860000  RH  055%=      5-min Rain = 0
KCR1 150104Z 04002KT 09/00 A304 RMK A01 T00860001  RH  055%=      5-min Rain = 0
KCR1 150105Z 04003KT 09/00 A304 RMK A01 T00860001  RH  055%=      5-min Rain = 0
KCR1 150106Z 04003KT 09/00 A304 RMK A01 T00850001  RH  055%=      5-min Rain = 0
KCR1 150107Z 04003KT 08/00 A304 RMK A01 T00840002  RH  056%=      5-min Rain = 0
KCR1 150108Z 04003KT 08/00 A304 RMK A01 T00840002  RH  056%=      5-min Rain = 0
KCR1 150109Z 04003KT 08/00 A304 RMK A01 T00830002  RH  056%=      5-min Rain = 0
KCR1 150110Z 04003KT 08/00 A304 RMK A01 T00820002  RH  057%=      5-min Rain = 0
KCR1 150111Z 04003KT 08/00 A304 RMK A01 T00800001  RH  058%=      5-min Rain = 0
KCR1 150112Z 04003KT 08/00 A304 RMK A01 T00780002  RH  059%=      5-min Rain = 0
KCR1 150113Z 04003KT 08/00 A304 RMK A01 T00770003  RH  059%=      5-min Rain = 0
KCR1 150114Z 04003KT 08/00 A304 RMK A01 T00760002  RH  060%=      5-min Rain = 0
KCR1 150115Z 04003KT 08/00 A304 RMK A01 T00750002  RH  060%=      5-min Rain = 0
KCR1 150116Z 04003KT 07/00 A304 RMK A01 T00740002  RH  061%=      5-min Rain = 0
KCR1 150117Z 03003KT 07/00 A304 RMK A01 T00730002  RH  061%=      5-min Rain = 0
KCR1 150118Z 03003KT 07/00 A304 RMK A01 T00730002  RH  060%=      5-min Rain = 0
KCR1 150119Z 03003KT 08/00 A304 RMK A01 T00750002  RH  060%=      5-min Rain = 0
KCR1 150120Z 03003KT 08/00 A304 RMK A01 T00750002  RH  060%=      5-min Rain = 0
KCR1 150121Z 02003KT 08/00 A304 RMK A01 T00750002  RH  060%=      5-min Rain = 0
KCR1 150122Z 03003KT 08/00 A304 RMK A01 T00750003  RH  060%=      5-min Rain = 0
KCR1 150123Z 03003KT 08/00 A304 RMK A01 T00750003  RH  060%=      5-min Rain = 0
KCR1 150124Z 03003KT 08/00 A304 RMK A01 T00750002  RH  060%=      5-min Rain = 0
KCR1 150125Z 03003KT 08/00 A304 RMK A01 T00750002  RH  060%=      5-min Rain = 0
KCR1 150126Z 03003KT 07/00 A304 RMK A01 T00740002  RH  060%=      5-min Rain = 0
KCR1 150127Z 03003KT 07/00 A304 RMK A01 T00730002  RH  061%=      5-min Rain = 0
KCR1 150128Z 03003KT 07/00 A304 RMK A01 T00730002  RH  061%=      5-min Rain = 0
KCR1 150129Z 03003KT 07/00 A304 RMK A01 T00730002  RH  061%=      5-min Rain = 0
KCR1 150130Z 03003KT 07/00 A304 RMK A01 T00730001  RH  060%=      5-min Rain = 0
KCR1 150131Z 03003KT 07/00 A304 RMK A01 T00730001  RH  060%=      5-min Rain = 0
KCR1 150132Z 03003KT 07/00 A304 RMK A01 T00740001  RH  060%=      5-min Rain = 0
KCR1 150133Z 03003KT 08/00 A304 RMK A01 T00750001  RH  060%=      5-min Rain = 0
KCR1 150134Z 03003KT 08/00 A304 RMK A01 T00750001  RH  059%=      5-min Rain = 0
KCR1 150135Z 03003KT 07/00 A304 RMK A01 T00740001  RH  060%=      5-min Rain = 0
KCR1 150136Z 03003KT 07/00 A304 RMK A01 T00730001  RH  060%=      5-min Rain = 0
KCR1 150137Z 03003KT 07/00 A304 RMK A01 T00730001  RH  060%=      5-min Rain = 0
KCR1 150138Z 03003KT 07/00 A304 RMK A01 T00730001  RH  060%=      5-min Rain = 0
KCR1 150139Z 03003KT 07/00 A304 RMK A01 T00730001  RH  060%=      5-min Rain = 0
KCR1 150140Z 03002KT 07/00 A304 RMK A01 T00730001  RH  060%=      5-min Rain = 0
KCR1 150141Z 03002KT 07/00 A304 RMK A01 T00730002  RH  060%=      5-min Rain = 0
KCR1 150142Z 03002KT 07/00 A304 RMK A01 T00730002  RH  061%=      5-min Rain = 0
KCR1 150143Z 02002KT 07/00 A304 RMK A01 T00730002  RH  060%=      5-min Rain = 0
KCR1 150144Z 01002KT 07/00 A304 RMK A01 T00740002  RH  060%=      5-min Rain = 0
KCR1 150145Z 02002KT 08/00 A304 RMK A01 T00750002  RH  060%=      5-min Rain = 0
KCR1 150146Z 01001KT 08/00 A304 RMK A01 T00750003  RH  060%=      5-min Rain = 0
KCR1 150147Z 01001KT 08/00 A3041 RMK A01 T00750003  RH  060%=      5-min Rain = 0
KCR1 150148Z 01001KT 08/00 A3041 RMK A01 T00750001  RH  059%=      5-min Rain = 0
KCR1 150149Z 00001KT 08/00 A3041 RMK A01 T00750001  RH  059%=      5-min Rain = 0
KCR1 150150Z 00001KT 08/00 A3041 RMK A01 T00750001  RH  059%=      5-min Rain = 0
KCR1 150151Z 00001KT 08/00 A3041 RMK A01 T00750001  RH  059%=      5-min Rain = 0
KCR1 150152Z 00001KT 08/00 A3041 RMK A01 T00750001  RH  059%=      5-min Rain = 0
KCR1 150153Z 00001KT 08/00 A3041 RMK A01 T00750001  RH  059%=      5-min Rain = 0
KCR1 150154Z 00001KT 07/00 A3041 RMK A01 T00740001  RH  059%=      5-min Rain = 0
KCR1 150155Z 00001KT 07/00 A3041 RMK A01 T00740001  RH  060%=      5-min Rain = 0
KCR1 150156Z 00001KT 07/00 A3041 RMK A01 T00730001  RH  060%=      5-min Rain = 0
KCR1 150157Z 01001KT 07/00 A3041 RMK A01 T00730000  RH  060%=      5-min Rain = 0
KCR1 150158Z 01001KT 07/00 A3041 RMK A01 T00740001  RH  060%=      5-min Rain = 0
KCR1 150159Z 02001KT 07/00 A3041 RMK A01 T00730001  RH  060%=      5-min Rain = 0
KCR1 150200Z 03001KT 07/00 A3041 RMK A01 T00730001  RH  060%=      5-min Rain = 0
KCR1 150201Z 03002KT 07/00 A3041 RMK A01 T00730001  RH  060%=      5-min Rain = 0
KCR1 150202Z 03002KT 07/00 A3041 RMK A01 T00730001  RH  060%=      5-min Rain = 0
KCR1 150203Z 03002KT 07/00 A3041 RMK A01 T00730001  RH  060%=      5-min Rain = 0
KCR1 150204Z 02002KT 07/00 A3041 RMK A01 T00730001  RH  060%=      5-min Rain = 0
KCR1 150205Z 02002KT 07/00 A3041 RMK A01 T00720001  RH  060%=      5-min Rain = 0
KCR1 150206Z 01002KT 07/00 A3041 RMK A01 T00720002  RH  061%=      5-min Rain = 0
KCR1 150207Z 01002KT 07/00 A3041 RMK A01 T00720002  RH  061%=      5-min Rain = 0
KCR1 150208Z 00002KT 07/00 A3041 RMK A01 T00710001  RH  061%=      5-min Rain = 0
KCR1 150209Z 00002KT 07/00 A3041 RMK A01 T00710002  RH  061%=      5-min Rain = 0
KCR1 150210Z 00002KT 07/00 A3041 RMK A01 T00710002  RH  062%=      5-min Rain = 0
KCR1 150211Z 00002KT 07/00 A3041 RMK A01 T00710003  RH  062%=      5-min Rain = 0
KCR1 150212Z 36002KT 07/00 A3041 RMK A01 T00700003  RH  062%=      5-min Rain = 0
KCR1 150213Z 00002KT 07/00 A3041 RMK A01 T00700002  RH  062%=      5-min Rain = 0
KCR1 150214Z 00002KT 07/00 A3041 RMK A01 T00700001  RH  062%=      5-min Rain = 0
KCR1 150215Z 01002KT 07/00 A3041 RMK A01 T00700002  RH  062%=      5-min Rain = 0
KCR1 150216Z 01002KT 07/00 A3041 RMK A01 T00700003  RH  062%=      5-min Rain = 0
KCR1 150217Z 01002KT 07/00 A3041 RMK A01 T00700002  RH  062%=      5-min Rain = 0
KCR1 150218Z 01002KT 07/00 A3041 RMK A01 T00700003  RH  062%=      5-min Rain = 0
KCR1 150219Z 01002KT 07/00 A3041 RMK A01 T00690003  RH  062%=      5-min Rain = 0
KCR1 150220Z 01002KT 07/00 A3041 RMK A01 T00690002  RH  062%=      5-min Rain = 0
KCR1 150221Z 02002KT 07/00 A3041 RMK A01 T00690002  RH  062%=      5-min Rain = 0
KCR1 150222Z 02002KT 07/00 A3041 RMK A01 T00690002  RH  062%=      5-min Rain = 0
KCR1 150223Z 01002KT 07/00 A3041 RMK A01 T00690001  RH  062%=      5-min Rain = 0
KCR1 150224Z 01001KT 07/00 A3041 RMK A01 T00680001  RH  062%=      5-min Rain = 0
KCR1 150225Z 00001KT 07/00 A3041 RMK A01 T00680000  RH  062%=      5-min Rain = 0
KCR1 150226Z 35001KT 07/00 A3041 RMK A01 T00680001  RH  062%=      5-min Rain = 0
KCR1 150227Z 35001KT 07/00 A3042 RMK A01 T00660000  RH  063%=      5-min Rain = 0
KCR1 150228Z 35001KT 06/M00 A3042 RMK A01 T00621001  RH  064%=      5-min Rain = 0
KCR1 150229Z 35001KT 06/M00 A3042 RMK A01 T00611001  RH  065%=      5-min Rain = 0
KCR1 150230Z 35001KT 06/00 A3042 RMK A01 T006100-0  RH  065%=      5-min Rain = 0
KCR1 150231Z 34001KT 06/00 A3042 RMK A01 T006100-0  RH  065%=      5-min Rain = 0
KCR1 150232Z 34001KT 06/00 A3042 RMK A01 T00600000  RH  065%=      5-min Rain = 0
KCR1 150233Z 35001KT 06/00 A3042 RMK A01 T00590000  RH  066%=      5-min Rain = 0
KCR1 150234Z 35001KT 06/00 A3042 RMK A01 T00580000  RH  066%=      5-min Rain = 0
KCR1 150235Z 36001KT 06/00 A3042 RMK A01 T005900-0  RH  066%=      5-min Rain = 0
KCR1 150236Z 00001KT 06/00 A3042 RMK A01 T00590000  RH  066%=      5-min Rain = 0
KCR1 150237Z 00001KT 06/00 A3042 RMK A01 T00590001  RH  066%=      5-min Rain = 0
KCR1 150238Z 00001KT 06/00 A3042 RMK A01 T00580000  RH  066%=      5-min Rain = 0
KCR1 150239Z 00001KT 06/00 A3042 RMK A01 T00580000  RH  066%=      5-min Rain = 0
KCR1 150240Z 00001KT 06/00 A3042 RMK A01 T005600-0  RH  067%=      5-min Rain = 0
KCR1 150241Z 35001KT 05/M00 A3042 RMK A01 T00541001  RH  068%=      5-min Rain = 0
KCR1 150242Z 35001KT 05/M00 A3042 RMK A01 T00541001  RH  068%=      5-min Rain = 0
KCR1 150243Z 35001KT 06/00 A3042 RMK A01 T005500-0  RH  067%=      5-min Rain = 0
KCR1 150244Z 35001KT 06/00 A3042 RMK A01 T00560000  RH  067%=      5-min Rain = 0
KCR1 150245Z 35001KT 06/00 A3042 RMK A01 T00570000  RH  067%=      5-min Rain = 0
KCR1 150246Z 35002KT 06/00 A3042 RMK A01 T00570000  RH  067%=      5-min Rain = 0
KCR1 150247Z 35002KT 06/00 A3042 RMK A01 T005600-0  RH  067%=      5-min Rain = 0
KCR1 150248Z 36002KT 06/00 A3042 RMK A01 T00560000  RH  067%=      5-min Rain = 0
KCR1 150249Z 00002KT 06/00 A3042 RMK A01 T00550001  RH  068%=      5-min Rain = 0
KCR1 150250Z 01002KT 06/00 A3042 RMK A01 T00550002  RH  069%=      5-min Rain = 0
KCR1 150251Z 01003KT 06/00 A3042 RMK A01 T00550002  RH  069%=      5-min Rain = 0
KCR1 150252Z 01003KT 06/00 A3042 RMK A01 T00550001  RH  069%=      5-min Rain = 0
KCR1 150253Z 01003KT 05/00 A3042 RMK A01 T00530000  RH  069%=      5-min Rain = 0
KCR1 150254Z 02003KT 05/00 A3042 RMK A01 T00520000  RH  069%=      5-min Rain = 0
KCR1 150255Z 03003KT 05/00 A3042 RMK A01 T005200-0  RH  069%=      5-min Rain = 0
KCR1 150256Z 02003KT 05/00 A3042 RMK A01 T00520001  RH  069%=      5-min Rain = 0
KCR1 150257Z 02003KT 05/00 A3042 RMK A01 T00520000  RH  069%=      5-min Rain = 0
KCR1 150258Z 03003KT 05/00 A3042 RMK A01 T005100-0  RH  069%=      5-min Rain = 0
KCR1 150259Z 03003KT 05/M00 A3042 RMK A01 T00491001  RH  070%=      5-min Rain = 0
KCR1 150300Z 02003KT 05/00 A3042 RMK A01 T004900-0  RH  071%=      5-min Rain = 0
KCR1 150301Z 02002KT 05/00 A3042 RMK A01 T004800-0  RH  071%=      5-min Rain = 0
KCR1 150302Z 02002KT 05/00 A3042 RMK A01 T00490000  RH  071%=      5-min Rain = 0
KCR1 150303Z 03002KT 05/00 A3042 RMK A01 T00490000  RH  070%=      5-min Rain = 0
KCR1 150304Z 03002KT 05/00 A3042 RMK A01 T00510002  RH  070%=      5-min Rain = 0
KCR1 150305Z 03002KT 05/00 A3042 RMK A01 T00520002  RH  070%=      5-min Rain = 0
KCR1 150306Z 03001KT 05/00 A3042 RMK A01 T00520003  RH  071%=      5-min Rain = 0
KCR1 150307Z 01001KT 05/00 A3042 RMK A01 T00520002  RH  070%=      5-min Rain = 0
KCR1 150308Z 01001KT 05/00 A3042 RMK A01 T00520001  RH  069%=      5-min Rain = 0
KCR1 150309Z 00001KT 05/00 A3042 RMK A01 T00520000  RH  069%=      5-min Rain = 0
KCR1 150310Z 00001KT 06/00 A3042 RMK A01 T00550000  RH  068%=      5-min Rain = 0
KCR1 150311Z 03001KT 06/00 A3042 RMK A01 T005600-0  RH  067%=      5-min Rain = 0
KCR1 150312Z 02000KT 06/M00 A3042 RMK A01 T00571001  RH  066%=      5-min Rain = 0
KCR1 150313Z 00000KT 06/M00 A3042 RMK A01 T00561001  RH  067%=      5-min Rain = 0
KCR1 150314Z 25001KT 05/M00 A3042 RMK A01 T00521002  RH  068%=      5-min Rain = 0
KCR1 150315Z 24002KT 05/M00 A3042 RMK A01 T00481003  RH  069%=      5-min Rain = 0
KCR1 150316Z 25002KT 05/M00 A3042 RMK A01 T00461002  RH  071%=      5-min Rain = 0
KCR1 150317Z 25002KT 04/M00 A3042 RMK A01 T00441002  RH  072%=      5-min Rain = 0
KCR1 150318Z 25002KT 04/M00 A3042 RMK A01 T00431002  RH  073%=      5-min Rain = 0
KCR1 150319Z 25003KT 04/M00 A3042 RMK A01 T00421001  RH  073%=      5-min Rain = 0
KCR1 150320Z 25003KT 04/M00 A3042 RMK A01 T00411001  RH  074%=      5-min Rain = 0
KCR1 150321Z 26003KT 04/M00 A3042 RMK A01 T00401002  RH  074%=      5-min Rain = 0
KCR1 150322Z 26003KT 04/M00 A3042 RMK A01 T00391002  RH  074%=      5-min Rain = 0
KCR1 150323Z 27004KT 04/M00 A3043 RMK A01 T00391002  RH  075%=      5-min Rain = 0
KCR1 150324Z 26004KT 04/M00 A3043 RMK A01 T00381002  RH  075%=      5-min Rain = 0
KCR1 150325Z 26004KT 04/M00 A3043 RMK A01 T00381001  RH  076%=      5-min Rain = 0
KCR1 150326Z 26005KT 04/M00 A3043 RMK A01 T00391001  RH  075%=      5-min Rain = 0
KCR1 150327Z 26005KT 04/M00 A3043 RMK A01 T00391001  RH  075%=      5-min Rain = 0
KCR1 150328Z 26005KT 04/M00 A3043 RMK A01 T00401001  RH  075%=      5-min Rain = 0
KCR1 150329Z 26005KT 04/00 A3043 RMK A01 T00410000  RH  075%=      5-min Rain = 0
KCR1 150330Z 26004KT 04/00 A3043 RMK A01 T00430000  RH  074%=      5-min Rain = 0
KCR1 150331Z 26004KT 04/00 A3043 RMK A01 T00430000  RH  074%=      5-min Rain = 0
KCR1 150332Z 26004KT 04/00 A3043 RMK A01 T00440001  RH  074%=      5-min Rain = 0
KCR1 150333Z 26004KT 05/00 A3043 RMK A01 T00480002  RH  072%=      5-min Rain = 0
KCR1 150334Z 26004KT 05/00 A3043 RMK A01 T00500001  RH  071%=      5-min Rain = 0
KCR1 150335Z 26005KT 05/00 A3043 RMK A01 T00500001  RH  071%=      5-min Rain = 0
KCR1 150336Z 26004KT 05/00 A3043 RMK A01 T00500001  RH  071%=      5-min Rain = 0
KCR1 150337Z 26005KT 05/00 A3043 RMK A01 T00520002  RH  070%=      5-min Rain = 0
KCR1 150338Z 26005KT 05/00 A3043 RMK A01 T00540001  RH  069%=      5-min Rain = 0
KCR1 150339Z 26005KT 05/00 A3043 RMK A01 T00530001  RH  069%=      5-min Rain = 0
KCR1 150340Z 26005KT 05/00 A3043 RMK A01 T00530000  RH  069%=      5-min Rain = 0
KCR1 150341Z 26004KT 05/00 A3043 RMK A01 T00520001  RH  069%=      5-min Rain = 0
KCR1 150342Z 25004KT 05/00 A3043 RMK A01 T00510000  RH  070%=      5-min Rain = 0
KCR1 150343Z 25004KT 05/00 A3043 RMK A01 T00530000  RH  069%=      5-min Rain = 0
KCR1 150344Z 25004KT 05/00 A3043 RMK A01 T00540000  RH  068%=      5-min Rain = 0
KCR1 150345Z 25004KT 06/00 A3043 RMK A01 T005500-0  RH  068%=      5-min Rain = 0
KCR1 150346Z 25004KT 05/00 A3043 RMK A01 T005400-0  RH  068%=      5-min Rain = 0
KCR1 150347Z 24004KT 06/00 A3043 RMK A01 T005500-0  RH  068%=      5-min Rain = 0
KCR1 150348Z 24004KT 06/M00 A3043 RMK A01 T00551001  RH  067%=      5-min Rain = 0
KCR1 150349Z 24004KT 05/M00 A3043 RMK A01 T00541001  RH  068%=      5-min Rain = 0
KCR1 150350Z 24004KT 05/00 A3043 RMK A01 T005200-0  RH  069%=      5-min Rain = 0
KCR1 150351Z 24004KT 05/00 A3043 RMK A01 T005000-0  RH  070%=      5-min Rain = 0
KCR1 150352Z 24004KT 05/00 A3043 RMK A01 T005000-0  RH  070%=      5-min Rain = 0
KCR1 150353Z 24004KT 05/00 A3043 RMK A01 T005100-0  RH  069%=      5-min Rain = 0
KCR1 150354Z 24003KT 05/M00 A3043 RMK A01 T00511001  RH  069%=      5-min Rain = 0
KCR1 150355Z 24003KT 05/M00 A3043 RMK A01 T00511001  RH  069%=      5-min Rain = 0
KCR1 150356Z 24003KT 05/M00 A3043 RMK A01 T00511001  RH  069%=      5-min Rain = 0
KCR1 150357Z 24003KT 05/M00 A3043 RMK A01 T00511001  RH  069%=      5-min Rain = 0
KCR1 150358Z 24003KT 05/00 A3043 RMK A01 T005200-0  RH  069%=      5-min Rain = 0
KCR1 150359Z 24003KT 05/00 A3043 RMK A01 T005200-0  RH  069%=      5-min Rain = 0
KCR1 150400Z 24003KT 05/00 A3043 RMK A01 T005000-0  RH  070%=      5-min Rain = 0
KCR1 150401Z 24003KT 05/00 A3043 RMK A01 T005000-0  RH  070%=      5-min Rain = 0
KCR1 150402Z 24003KT 05/M00 A3043 RMK A01 T00511001  RH  069%=      5-min Rain = 0
KCR1 150403Z 23003KT 05/M00 A3043 RMK A01 T00511001  RH  069%=      5-min Rain = 0
KCR1 150404Z 24003KT 05/M00 A3043 RMK A01 T00521001  RH  069%=      5-min Rain = 0
KCR1 150405Z 23003KT 05/M00 A3043 RMK A01 T00531001  RH  068%=      5-min Rain = 0
KCR1 150406Z 23003KT 05/M00 A3043 RMK A01 T00531001  RH  068%=      5-min Rain = 0
KCR1 150407Z 23002KT 05/M00 A3043 RMK A01 T00541001  RH  068%=      5-min Rain = 0
KCR1 150408Z 22002KT 06/00 A3043 RMK A01 T005500-0  RH  068%=      5-min Rain = 0
KCR1 150409Z 22002KT 05/00 A3043 RMK A01 T005400-0  RH  068%=      5-min Rain = 0
KCR1 150410Z 22002KT 05/M00 A3043 RMK A01 T00531001  RH  068%=      5-min Rain = 0
KCR1 150411Z 21002KT 05/M00 A3042 RMK A01 T00541001  RH  068%=      5-min Rain = 0
KCR1 150412Z 21002KT 06/M00 A3042 RMK A01 T00551001  RH  067%=      5-min Rain = 0
KCR1 150413Z 21002KT 06/00 A3042 RMK A01 T005700-0  RH  066%=      5-min Rain = 0
KCR1 150414Z 21002KT 06/M00 A3042 RMK A01 T00581001  RH  066%=      5-min Rain = 0
KCR1 150415Z 22002KT 06/M00 A3042 RMK A01 T00581001  RH  066%=      5-min Rain = 0
KCR1 150416Z 22002KT 06/M00 A3042 RMK A01 T00581001  RH  066%=      5-min Rain = 0
KCR1 150417Z 23002KT 06/M00 A3042 RMK A01 T00581001  RH  066%=      5-min Rain = 0
KCR1 150418Z 23003KT 06/M00 A3042 RMK A01 T00571002  RH  066%=      5-min Rain = 0
KCR1 150419Z 23003KT 06/M00 A3042 RMK A01 T00561001  RH  067%=      5-min Rain = 0
KCR1 150420Z 24003KT 06/M00 A3042 RMK A01 T00581001  RH  066%=      5-min Rain = 0
KCR1 150421Z 24004KT 06/M00 A3042 RMK A01 T00571001  RH  066%=      5-min Rain = 0
KCR1 150422Z 24004KT 06/M00 A3042 RMK A01 T00551002  RH  067%=      5-min Rain = 0
KCR1 150423Z 24004KT 06/M00 A3042 RMK A01 T00551002  RH  067%=      5-min Rain = 0
KCR1 150424Z 25004KT 06/M00 A3043 RMK A01 T00551001  RH  067%=      5-min Rain = 0
KCR1 150425Z 25004KT 06/M00 A3043 RMK A01 T00551001  RH  067%=      5-min Rain = 0
KCR1 150426Z 25004KT 06/M00 A3043 RMK A01 T00561001  RH  067%=      5-min Rain = 0
KCR1 150427Z 24004KT 06/M00 A3043 RMK A01 T00561001  RH  066%=      5-min Rain = 0
KCR1 150428Z 24004KT 06/M00 A3043 RMK A01 T00561002  RH  067%=      5-min Rain = 0
KCR1 150429Z 24004KT 06/M00 A3043 RMK A01 T00551001  RH  067%=      5-min Rain = 0
KCR1 150430Z 24004KT 06/M00 A3043 RMK A01 T00551001  RH  067%=      5-min Rain = 0
KCR1 150431Z 24003KT 06/M00 A3043 RMK A01 T00561001  RH  067%=      5-min Rain = 0
KCR1 150432Z 24003KT 06/M00 A3043 RMK A01 T00551001  RH  067%=      5-min Rain = 0
KCR1 150433Z 25003KT 06/M00 A3043 RMK A01 T00551001  RH  067%=      5-min Rain = 0
KCR1 150434Z 25003KT 06/00 A3043 RMK A01 T005500-0  RH  067%=      5-min Rain = 0
KCR1 150435Z 25003KT 06/00 A3043 RMK A01 T00560001  RH  067%=      5-min Rain = 0
KCR1 150436Z 25003KT 06/00 A3043 RMK A01 T00550002  RH  068%=      5-min Rain = 0
KCR1 150437Z 25003KT 05/00 A3043 RMK A01 T005300-0  RH  068%=      5-min Rain = 0
KCR1 150438Z 25004KT 05/M00 A3043 RMK A01 T00521001  RH  069%=      5-min Rain = 0
KCR1 150439Z 25004KT 05/M00 A3043 RMK A01 T00521001  RH  069%=      5-min Rain = 0
KCR1 150440Z 25004KT 05/M00 A3043 RMK A01 T00511001  RH  069%=      5-min Rain = 0
KCR1 150441Z 25004KT 05/M00 A3043 RMK A01 T00511001  RH  069%=      5-min Rain = 0
KCR1 150442Z 25005KT 05/M00 A3043 RMK A01 T00511001  RH  069%=      5-min Rain = 0
KCR1 150443Z 25005KT 05/00 A3043 RMK A01 T005400-0  RH  068%=      5-min Rain = 0
KCR1 150444Z 25005KT 06/00 A3043 RMK A01 T00550000  RH  068%=      5-min Rain = 0
KCR1 150445Z 25005KT 06/00 A3043 RMK A01 T00560000  RH  067%=      5-min Rain = 0
KCR1 150446Z 25005KT 06/00 A3043 RMK A01 T00560000  RH  067%=      5-min Rain = 0
KCR1 150447Z 26005KT 06/00 A3044 RMK A01 T005600-0  RH  067%=      5-min Rain = 0
KCR1 150448Z 26004KT 06/M00 A3044 RMK A01 T00551001  RH  067%=      5-min Rain = 0
KCR1 150449Z 26004KT 06/00 A3044 RMK A01 T005500-0  RH  067%=      5-min Rain = 0
KCR1 150450Z 26004KT 06/M00 A3044 RMK A01 T00551001  RH  067%=      5-min Rain = 0
KCR1 150451Z 26004KT 06/00 A3044 RMK A01 T005600-0  RH  067%=      5-min Rain = 0
KCR1 150452Z 26004KT 06/00 A3044 RMK A01 T005700-0  RH  067%=      5-min Rain = 0
KCR1 150453Z 25004KT 06/00 A3044 RMK A01 T005700-0  RH  066%=      5-min Rain = 0
KCR1 150454Z 25004KT 06/00 A3044 RMK A01 T005700-0  RH  066%=      5-min Rain = 0
KCR1 150455Z 25004KT 06/00 A3044 RMK A01 T005700-0  RH  067%=      5-min Rain = 0
KCR1 150456Z 25004KT 06/M00 A3044 RMK A01 T00571001  RH  067%=      5-min Rain = 0
KCR1 150457Z 26005KT 06/00 A3044 RMK A01 T005800-0  RH  066%=      5-min Rain = 0
KCR1 150458Z 26005KT 06/00 A3044 RMK A01 T00610001  RH  065%=      5-min Rain = 0
KCR1 150459Z 26004KT 06/00 A3044 RMK A01 T00620000  RH  065%=      5-min Rain = 0
KCR1 150500Z 26004KT 06/00 A3044 RMK A01 T00630001  RH  064%=      5-min Rain = 0
KCR1 150501Z 26004KT 06/00 A3044 RMK A01 T00630001  RH  064%=      5-min Rain = 0
KCR1 150502Z 26004KT 06/00 A3044 RMK A01 T00630000  RH  064%=      5-min Rain = 0
KCR1 150503Z 26004KT 06/00 A3044 RMK A01 T006200-0  RH  064%=      5-min Rain = 0
KCR1 150504Z 26004KT 06/M00 A3044 RMK A01 T00611001  RH  065%=      5-min Rain = 0
KCR1 150505Z 26004KT 06/M00 A3044 RMK A01 T00601001  RH  065%=      5-min Rain = 0
KCR1 150506Z 26004KT 06/M00 A3044 RMK A01 T00601001  RH  065%=      5-min Rain = 0
KCR1 150507Z 26004KT 06/M00 A3044 RMK A01 T00601001  RH  065%=      5-min Rain = 0
KCR1 150508Z 26004KT 06/M00 A3044 RMK A01 T00591001  RH  065%=      5-min Rain = 0
KCR1 150509Z 26004KT 06/M00 A3044 RMK A01 T00581001  RH  066%=      5-min Rain = 0
KCR1 150510Z 26004KT 06/M00 A3044 RMK A01 T00551002  RH  067%=      5-min Rain = 0
KCR1 150511Z 26004KT 05/M00 A3044 RMK A01 T00521002  RH  068%=      5-min Rain = 0
KCR1 150512Z 26004KT 05/M00 A3044 RMK A01 T00511001  RH  069%=      5-min Rain = 0
KCR1 150513Z 26004KT 05/M00 A3044 RMK A01 T00501001  RH  070%=      5-min Rain = 0
KCR1 150514Z 26004KT 05/M00 A3044 RMK A01 T00501001  RH  070%=      5-min Rain = 0
KCR1 150515Z 26004KT 05/00 A3044 RMK A01 T005000-0  RH  070%=      5-min Rain = 0
KCR1 150516Z 26004KT 05/00 A3044 RMK A01 T005000-0  RH  070%=      5-min Rain = 0
KCR1 150517Z 26003KT 05/00 A3044 RMK A01 T005000-0  RH  070%=      5-min Rain = 0
KCR1 150518Z 26003KT 05/00 A3044 RMK A01 T005200-0  RH  069%=      5-min Rain = 0
KCR1 150519Z 26003KT 05/00 A3044 RMK A01 T00540000  RH  068%=      5-min Rain = 0
KCR1 150520Z 26004KT 06/00 A3044 RMK A01 T005500-0  RH  067%=      5-min Rain = 0
KCR1 150521Z 26004KT 06/M00 A3044 RMK A01 T00571001  RH  067%=      5-min Rain = 0
KCR1 150522Z 26004KT 06/M00 A3044 RMK A01 T00571001  RH  066%=      5-min Rain = 0
KCR1 150523Z 27004KT 06/M00 A3044 RMK A01 T00571001  RH  066%=      5-min Rain = 0
KCR1 150524Z 27004KT 06/M00 A3044 RMK A01 T00551001  RH  067%=      5-min Rain = 0
KCR1 150525Z 27004KT 05/M00 A3044 RMK A01 T00531002  RH  068%=      5-min Rain = 0
KCR1 150526Z 27004KT 05/M00 A3044 RMK A01 T00511002  RH  069%=      5-min Rain = 0
KCR1 150527Z 27004KT 05/M00 A3044 RMK A01 T00501001  RH  069%=      5-min Rain = 0
KCR1 150528Z 26004KT 05/00 A3044 RMK A01 T00530000  RH  069%=      5-min Rain = 0
KCR1 150529Z 26004KT 05/00 A3044 RMK A01 T005300-0  RH  068%=      5-min Rain = 0
KCR1 150530Z 27004KT 05/M00 A3044 RMK A01 T00541001  RH  068%=      5-min Rain = 0
KCR1 150531Z 27004KT 05/00 A3044 RMK A01 T005400-0  RH  068%=      5-min Rain = 0
KCR1 150532Z 27004KT 05/00 A3044 RMK A01 T005400-0  RH  068%=      5-min Rain = 0
KCR1 150533Z 27004KT 06/00 A3044 RMK A01 T005500-0  RH  068%=      5-min Rain = 0
KCR1 150534Z 27004KT 06/00 A3044 RMK A01 T005600-0  RH  067%=      5-min Rain = 0
KCR1 150535Z 27004KT 06/00 A3044 RMK A01 T005700-0  RH  067%=      5-min Rain = 0
KCR1 150536Z 27004KT 06/00 A3044 RMK A01 T005800-0  RH  066%=      5-min Rain = 0
KCR1 150537Z 27004KT 06/00 A3044 RMK A01 T005800-0  RH  066%=      5-min Rain = 0
KCR1 150538Z 27003KT 06/00 A3044 RMK A01 T00590000  RH  066%=      5-min Rain = 0
KCR1 150539Z 27003KT 06/M00 A3044 RMK A01 T00591001  RH  066%=      5-min Rain = 0
KCR1 150540Z 27003KT 06/M00 A3044 RMK A01 T00591001  RH  065%=      5-min Rain = 0
KCR1 150541Z 27003KT 06/M00 A3044 RMK A01 T00601001  RH  065%=      5-min Rain = 0
KCR1 150542Z 27003KT 06/M00 A3044 RMK A01 T00601001  RH  065%=      5-min Rain = 0
KCR1 150543Z 26003KT 06/M00 A3044 RMK A01 T00601001  RH  065%=      5-min Rain = 0
KCR1 150544Z 27003KT 06/M00 A3044 RMK A01 T00601001  RH  065%=      5-min Rain = 0
KCR1 150545Z 27003KT 06/00 A3044 RMK A01 T006000-0  RH  065%=      5-min Rain = 0
KCR1 150546Z 27003KT 06/00 A3044 RMK A01 T006000-0  RH  065%=      5-min Rain = 0
KCR1 150547Z 28003KT 06/M00 A3044 RMK A01 T00591001  RH  065%=      5-min Rain = 0
KCR1 150548Z 28003KT 06/00 A3044 RMK A01 T005800-0  RH  066%=      5-min Rain = 0
KCR1 150549Z 28003KT 06/00 A3044 RMK A01 T005800-0  RH  066%=      5-min Rain = 0
KCR1 150550Z 28003KT 06/M00 A3044 RMK A01 T00571001  RH  066%=      5-min Rain = 0
KCR1 150551Z 28003KT 06/00 A3043 RMK A01 T00570000  RH  067%=      5-min Rain = 0
KCR1 150552Z 28002KT 06/00 A3043 RMK A01 T00560000  RH  067%=      5-min Rain = 0
KCR1 150553Z 28002KT 06/00 A3043 RMK A01 T00550000  RH  068%=      5-min Rain = 0
KCR1 150554Z 28001KT 05/00 A3043 RMK A01 T005400-0  RH  068%=      5-min Rain = 0
KCR1 150555Z 28001KT 05/M00 A3043 RMK A01 T00541001  RH  068%=      5-min Rain = 0
KCR1 150556Z 28001KT 05/M00 A3043 RMK A01 T00541001  RH  068%=      5-min Rain = 0
KCR1 150557Z 28000KT 05/M00 A3043 RMK A01 T00541001  RH  068%=      5-min Rain = 0
KCR1 150558Z 27001KT 05/M00 A3043 RMK A01 T00541001  RH  068%=      5-min Rain = 0
KCR1 150559Z 26001KT 05/M00 A3043 RMK A01 T00541001  RH  068%=      5-min Rain = 0

Page generated in 0.1308 seconds.